| time (UTC) | temp F | wind direction | speed MPH | gust MPH | rain 1hr in | rain 24hr in | rain mn in | humidity % | barometer mb |
| 20260903091955 | 70 | 63 | 2.0 | 4.0 | 0.00 | 0.00 | 0.00 | 78 | 1025.6 |
| 20260903091813 | 69 | 105 | 2.0 | 5.0 | 0.00 | 0.00 | 0.00 | 78 | 1025.7 |
| 20260903091614 | 69 | 99 | 2.0 | 5.0 | 0.00 | 0.00 | 0.00 | 78 | 1025.6 |
| 20260903091545 | 69 | 53 | 2.0 | 5.0 | 0.00 | 0.00 | 0.00 | 79 | 1025.6 |
| 20260903091429 | 69 | 58 | 1.0 | 5.0 | 0.00 | 0.00 | 0.00 | 79 | 1025.7 |
| 20260903091255 | 69 | 74 | 2.0 | 5.0 | 0.00 | 0.00 | 0.00 | 80 | 1025.6 |
| 20260903091136 | 69 | 53 | 2.0 | 5.0 | 0.00 | 0.00 | 0.00 | 80 | 1025.7 |
| 20260903090712 | 68 | 140 | 2.0 | 5.0 | 0.00 | 0.00 | 0.00 | 81 | 1025.6 |
| 20260903090538 | 68 | 113 | 0.0 | 5.0 | 0.00 | 0.00 | 0.00 | 81 | 1025.7 |
| 20260903090500 | 68 | 55 | 0.0 | 5.0 | 0.00 | 0.00 | 0.00 | 81 | 1025.7 |
| 20260903090408 | 68 | 97 | 1.0 | 5.0 | 0.00 | 0.00 | 0.00 | 81 | 1025.7 |
| 20260903090247 | 68 | 82 | 3.0 | 6.0 | 0.00 | 0.00 | 0.00 | 81 | 1025.7 |
| 20260903090127 | 68 | 64 | 2.0 | 6.0 | 0.00 | 0.00 | 0.00 | 82 | 1025.7 |
| 20260903090104 | 67 | 77 | 2.0 | 6.0 | 0.00 | 0.00 | 0.00 | 82 | 1025.7 |
| 20260903085926 | 67 | 45 | 2.0 | 6.0 | 0.00 | 0.00 | 0.00 | 81 | 1025.7 |
| 20260903085803 | 67 | 60 | 3.0 | 6.0 | 0.00 | 0.00 | 0.00 | 82 | 1025.7 |
| 20260903085733 | 67 | 60 | 3.0 | 6.0 | 0.00 | 0.00 | 0.00 | 82 | 1025.7 |
| 20260903085628 | 67 | 49 | 3.0 | 6.0 | 0.00 | 0.00 | 0.00 | 82 | 1025.6 |
| 20260903085437 | 67 | 103 | 2.0 | 4.0 | 0.00 | 0.00 | 0.00 | 83 | 1025.7 |
| 20260903085252 | 67 | 104 | 2.0 | 5.0 | 0.00 | 0.00 | 0.00 | 84 | 1025.7 |
| 20260903085242 | 67 | 97 | 1.0 | 5.0 | 0.00 | 0.00 | 0.00 | 83 | 1025.7 |
| 20260903085053 | 67 | 69 | 2.0 | 5.0 | 0.00 | 0.00 | 0.00 | 83 | 1025.7 |
| 20260903084916 | 67 | 63 | 3.0 | 6.0 | 0.00 | 0.00 | 0.00 | 84 | 1025.7 |
| 20260903084825 | 66 | 86 | 3.0 | 6.0 | 0.00 | 0.00 | 0.00 | 84 | 1025.7 |
| 20260903084722 | 66 | 86 | 2.0 | 6.0 | 0.00 | 0.00 | 0.00 | 84 | 1025.7 |
| 20260903084137 | 66 | 74 | 3.0 | 6.0 | 0.00 | 0.00 | 0.00 | 85 | 1025.8 |
| 20260903084128 | 66 | 60 | 2.0 | 6.0 | 0.00 | 0.00 | 0.00 | 85 | 1025.8 |
| 20260903083540 | 65 | 105 | 3.0 | 5.0 | 0.00 | 0.00 | 0.00 | 86 | 1025.8 |
| 20260903083448 | 65 | 88 | 2.0 | 6.0 | 0.00 | 0.00 | 0.00 | 86 | 1025.7 |
| 20260903083354 | 65 | 74 | 2.0 | 6.0 | 0.00 | 0.00 | 0.00 | 86 | 1025.8 |
| 20260903083153 | 65 | 128 | 2.0 | 6.0 | 0.00 | 0.00 | 0.00 | 86 | 1025.7 |
| 20260903083011 | 65 | 69 | 2.0 | 6.0 | 0.00 | 0.00 | 0.00 | 86 | 1025.7 |
| 20260903082607 | 65 | 128 | 4.0 | 6.0 | 0.00 | 0.00 | 0.00 | 86 | 1025.6 |
| 20260903082131 | 65 | 87 | 3.0 | 4.0 | 0.00 | 0.00 | 0.00 | 87 | 1025.6 |
| 20260903082034 | 65 | 97 | 3.0 | 4.0 | 0.00 | 0.00 | 0.00 | 86 | 1025.5 |
| 20260903081839 | 65 | 147 | 2.0 | 4.0 | 0.00 | 0.00 | 0.00 | 87 | 1025.6 |
| 20260903081445 | 65 | 111 | 3.0 | 4.0 | 0.00 | 0.00 | 0.00 | 87 | 1025.6 |
| 20260903080910 | 64 | 55 | 1.0 | 4.0 | 0.00 | 0.00 | 0.00 | 88 | 1025.5 |
| 20260903080117 | 64 | 55 | 1.0 | 3.0 | 0.00 | 0.00 | 0.00 | 89 | 1025.6 |
| 20260903075950 | 64 | 139 | 1.0 | 3.0 | 0.00 | 0.00 | 0.00 | 89 | 1025.7 |
| 20260903075158 | 63 | 89 | 2.0 | 3.0 | 0.00 | 0.00 | 0.00 | 89 | 1025.7 |
| 20260903075112 | 63 | 78 | 2.0 | 3.0 | 0.00 | 0.00 | 0.00 | 89 | 1025.7 |
| 20260903075018 | 63 | 76 | 2.0 | 4.0 | 0.00 | 0.00 | 0.00 | 89 | 1025.7 |
| 20260903074829 | 63 | 124 | 2.0 | 4.0 | 0.00 | 0.00 | 0.00 | 90 | 1025.7 |
| 20260903074651 | 63 | 144 | 2.0 | 5.0 | 0.00 | 0.00 | 0.00 | 90 | 1025.7 |
| 20260903074516 | 63 | 127 | 1.0 | 5.0 | 0.00 | 0.00 | 0.00 | 90 | 1025.7 |
| 20260903074335 | 62 | 57 | 2.0 | 5.0 | 0.00 | 0.00 | 0.00 | 90 | 1025.5 |
| 20260903073954 | 62 | 111 | 2.0 | 5.0 | 0.00 | 0.00 | 0.00 | 90 | 1025.7 |
| 20260903073806 | 62 | 140 | 3.0 | 5.0 | 0.00 | 0.00 | 0.00 | 90 | 1025.7 |
| 20260903073614 | 62 | 136 | 2.0 | 4.0 | 0.00 | 0.00 | 0.00 | 91 | 1025.7 |
| 20260903073437 | 62 | 135 | 2.0 | 3.0 | 0.00 | 0.00 | 0.00 | 91 | 1025.6 |
| 20260903072942 | 62 | 128 | 2.0 | 3.0 | 0.00 | 0.00 | 0.00 | 91 | 1025.6 |
| 20260903072451 | 61 | 130 | 0.0 | 3.0 | 0.00 | 0.00 | 0.00 | 91 | 1025.7 |
| 20260903072121 | 61 | 130 | 2.0 | 3.0 | 0.00 | 0.00 | 0.00 | 91 | 1025.8 |
| 20260903071852 | 61 | 119 | 1.0 | 4.0 | 0.00 | 0.00 | 0.00 | 92 | 1025.8 |
| 20260903071716 | 61 | 111 | 1.0 | 4.0 | 0.00 | 0.00 | 0.00 | 92 | 1025.7 |
| 20260903071626 | 61 | 105 | 1.0 | 4.0 | 0.00 | 0.00 | 0.00 | 92 | 1025.7 |
| 20260903071546 | 61 | 108 | 2.0 | 4.0 | 0.00 | 0.00 | 0.00 | 92 | 1025.7 |
| 20260903071252 | 61 | 113 | 2.0 | 4.0 | 0.00 | 0.00 | 0.00 | 92 | 1025.7 |
| 20260903071105 | 61 | 117 | 2.0 | 4.0 | 0.00 | 0.00 | 0.00 | 92 | 1025.7 |
| 20260903070845 | 61 | 118 | 1.0 | 4.0 | 0.00 | 0.00 | 0.00 | 92 | 1025.7 |
| 20260903070704 | 60 | 138 | 2.0 | 4.0 | 0.00 | 0.00 | 0.00 | 92 | 1025.7 |
| 20260903070626 | 60 | 129 | 1.0 | 4.0 | 0.00 | 0.00 | 0.00 | 93 | 1025.7 |
| 20260903070531 | 60 | 117 | 0.0 | 2.0 | 0.00 | 0.00 | 0.00 | 93 | 1025.7 |
| 20260903070250 | 60 | 127 | 1.0 | 4.0 | 0.00 | 0.00 | 0.00 | 93 | 1025.7 |
| 20260903070154 | 60 | 127 | 0.0 | 4.0 | 0.00 | 0.00 | 0.00 | 93 | 1025.7 |
| 20260903070130 | 60 | 80 | 0.0 | 4.0 | 0.00 | 0.00 | 0.00 | 93 | 1025.7 |
| 20260903065926 | 60 | 95 | 1.0 | 4.0 | 0.00 | 0.00 | 0.00 | 93 | 1025.8 |
| 20260903065804 | 60 | 103 | 2.0 | 4.0 | 0.00 | 0.00 | 0.00 | 93 | 1025.6 |
| 20260903065739 | 60 | 103 | 3.0 | 4.0 | 0.00 | 0.00 | 0.00 | 93 | 1025.6 |
| 20260903065635 | 60 | 93 | 2.0 | 4.0 | 0.00 | 0.00 | 0.00 | 93 | 1025.6 |
| 20260903065438 | 60 | 76 | 1.0 | 2.0 | 0.00 | 0.00 | 0.00 | 94 | 1025.6 |
| 20260903065326 | 59 | 127 | 0.0 | 2.0 | 0.00 | 0.00 | 0.00 | 94 | 1025.6 |
| 20260903064455 | 59 | 119 | 1.0 | 2.0 | 0.00 | 0.00 | 0.00 | 94 | 1025.6 |
| 20260903064426 | 59 | 119 | 1.0 | 2.0 | 0.00 | 0.00 | 0.00 | 95 | 1025.5 |
| 20260903063849 | 62 | 265 | 0.0 | 0.0 | 0.00 | 0.00 | 0.00 | 86 | 1025.3 |
| 20260903063826 | 58 | 286 | 0.0 | 1.0 | 0.00 | 0.00 | 0.00 | 95 | 1025.6 |
| 20260903063728 | 58 | 286 | 0.0 | 1.0 | 0.00 | 0.00 | 0.00 | 95 | 1025.5 |
| 20260903063702 | 58 | 286 | 0.0 | 1.0 | 0.00 | 0.00 | 0.00 | 95 | 1025.7 |
| 20260903063458 | 62 | 265 | 0.0 | 0.0 | 0.00 | 0.00 | 0.00 | 85 | 1025.2 |
| 20260903063416 | 58 | 286 | 0.0 | 1.0 | 0.00 | 0.00 | 0.00 | 95 | 1025.5 |
| 20260903063242 | 58 | 286 | 0.0 | 1.0 | 0.00 | 0.00 | 0.00 | 95 | 1025.4 |
| 20260903063213 | 58 | 286 | 0.0 | 1.0 | 0.00 | 0.00 | 0.00 | 95 | 1025.5 |
| 20260903063133 | 57 | 286 | 0.0 | 0.0 | 0.00 | 0.00 | 0.00 | 95 | 1025.5 |
| 20260903062902 | 57 | 286 | 0.0 | 0.0 | 0.00 | 0.00 | 0.00 | 95 | 1025.4 |
| 20260903062808 | 57 | 286 | 0.0 | 0.0 | 0.00 | 0.00 | 0.00 | 95 | 1025.3 |
| 20260903062751 | 57 | 286 | 0.0 | 0.0 | 0.00 | 0.00 | 0.00 | 95 | 1025.4 |
| 20260903062602 | 57 | 286 | 0.0 | 0.0 | 0.00 | 0.00 | 0.00 | 95 | 1025.4 |
| 20260903062317 | 63 | 265 | 0.0 | 2.0 | 0.00 | 0.00 | 0.00 | 85 | 1025.4 |
| 20260903062252 | 63 | 265 | 1.0 | 2.0 | 0.00 | 0.00 | 0.00 | 84 | 1025.4 |
| 20260903062229 | 57 | 286 | 0.0 | 0.0 | 0.00 | 0.00 | 0.00 | 95 | 1025.4 |
| 20260903062207 | 56 | 286 | 0.0 | 0.0 | 0.00 | 0.00 | 0.00 | 95 | 1025.4 |
| 20260903062108 | 56 | 286 | 0.0 | 0.0 | 0.00 | 0.00 | 0.00 | 95 | 1025.4 |
| 20260903061938 | 56 | 286 | 0.0 | 0.0 | 0.00 | 0.00 | 0.00 | 95 | 1025.4 |
| 20260903061632 | 56 | 286 | 0.0 | 0.0 | 0.00 | 0.00 | 0.00 | 95 | 1025.5 |
| 20260903061450 | 63 | 265 | 0.0 | 1.0 | 0.00 | 0.00 | 0.00 | 84 | 1025.3 |
| 20260903061407 | 56 | 286 | 0.0 | 0.0 | 0.00 | 0.00 | 0.00 | 95 | 1025.4 |
| 20260903061328 | 56 | 286 | 0.0 | 0.0 | 0.00 | 0.00 | 0.00 | 95 | 1025.4 |
| 20260903061308 | 56 | 286 | 0.0 | 0.0 | 0.00 | 0.00 | 0.00 | 95 | 1025.4 |
| 20260903061228 | 56 | 286 | 0.0 | 0.0 | 0.00 | 0.00 | 0.00 | 95 | 1025.4 |
| 20260903061041 | 56 | 286 | 0.0 | 0.0 | 0.00 | 0.00 | 0.00 | 95 | 1025.4 |
| 20260903060941 | 56 | 286 | 0.0 | 0.0 | 0.00 | 0.00 | 0.00 | 95 | 1025.4 |
| 20260903060237 | 56 | 286 | 0.0 | 0.0 | 0.00 | 0.00 | 0.00 | 95 | 1025.5 |
| 20260903060215 | 56 | 286 | 0.0 | 0.0 | 0.00 | 0.00 | 0.00 | 95 | 1025.5 |
| 20260903060059 | 56 | 286 | 0.0 | 0.0 | 0.00 | 0.00 | 0.00 | 95 | 1025.5 |
| 20260903055806 | 56 | 286 | 0.0 | 0.0 | 0.00 | 0.00 | 0.00 | 95 | 1025.5 |
| 20260903055750 | 64 | 271 | 1.0 | 2.0 | 0.00 | 0.00 | 0.00 | 83 | 1025.4 |
| 20260903055656 | 56 | 286 | 0.0 | 0.0 | 0.00 | 0.00 | 0.00 | 96 | 1025.4 |
| 20260903055634 | 56 | 286 | 0.0 | 0.0 | 0.00 | 0.00 | 0.00 | 96 | 1025.5 |
| 20260903055412 | 56 | 286 | 0.0 | 0.0 | 0.00 | 0.00 | 0.00 | 96 | 1025.5 |
| 20260903055257 | 56 | 286 | 0.0 | 0.0 | 0.00 | 0.00 | 0.00 | 96 | 1025.5 |
| 20260903055233 | 56 | 286 | 0.0 | 0.0 | 0.00 | 0.00 | 0.00 | 96 | 1025.4 |
| 20260903055130 | 56 | 286 | 0.0 | 0.0 | 0.00 | 0.00 | 0.00 | 96 | 1025.4 |
| 20260903054958 | 56 | 286 | 0.0 | 0.0 | 0.00 | 0.00 | 0.00 | 95 | 1025.4 |
| 20260903054920 | 55 | 286 | 0.0 | 0.0 | 0.00 | 0.00 | 0.00 | 95 | 1025.4 |
| 20260903054500 | 55 | 286 | 0.0 | 0.0 | 0.00 | 0.00 | 0.00 | 95 | 1025.3 |
| 20260903054407 | 55 | 286 | 0.0 | 0.0 | 0.00 | 0.00 | 0.00 | 95 | 1025.4 |
| 20260903054032 | 55 | 286 | 0.0 | 0.0 | 0.00 | 0.00 | 0.00 | 95 | 1025.3 |
| 20260903053938 | 64 | 282 | 1.0 | 2.0 | 0.00 | 0.00 | 0.00 | 83 | 1025.4 |
| 20260903053827 | 55 | 286 | 0.0 | 0.0 | 0.00 | 0.00 | 0.00 | 95 | 1025.3 |
| 20260903053717 | 55 | 286 | 0.0 | 0.0 | 0.00 | 0.00 | 0.00 | 95 | 1025.3 |
| 20260903053520 | 55 | 286 | 0.0 | 0.0 | 0.00 | 0.00 | 0.00 | 95 | 1025.3 |
| 20260903053434 | 55 | 286 | 0.0 | 0.0 | 0.00 | 0.00 | 0.00 | 95 | 1025.2 |
| 20260903053417 | 55 | 286 | 0.0 | 0.0 | 0.00 | 0.00 | 0.00 | 95 | 1025.2 |
| 20260903053325 | 55 | 286 | 0.0 | 0.0 | 0.00 | 0.00 | 0.00 | 95 | 1025.4 |
| 20260903053148 | 55 | 286 | 0.0 | 0.0 | 0.00 | 0.00 | 0.00 | 95 | 1025.3 |
| 20260903053122 | 55 | 286 | 0.0 | 0.0 | 0.00 | 0.00 | 0.00 | 95 | 1025.3 |
| 20260903053105 | 55 | 286 | 0.0 | 0.0 | 0.00 | 0.00 | 0.00 | 95 | 1025.2 |
| 20260903052601 | 55 | 286 | 0.0 | 0.0 | 0.00 | 0.00 | 0.00 | 95 | 1025.2 |
| 20260903052242 | 55 | 286 | 0.0 | 0.0 | 0.00 | 0.00 | 0.00 | 95 | 1025.1 |
| 20260903052135 | 55 | 286 | 0.0 | 0.0 | 0.00 | 0.00 | 0.00 | 95 | 1025.2 |
| 20260903051835 | 55 | 286 | 0.0 | 0.0 | 0.00 | 0.00 | 0.00 | 95 | 1025.2 |
| 20260903051708 | 55 | 286 | 0.0 | 0.0 | 0.00 | 0.00 | 0.00 | 95 | 1025.2 |
| 20260903051629 | 55 | 286 | 0.0 | 0.0 | 0.00 | 0.00 | 0.00 | 95 | 1025.2 |
| 20260903051300 | 55 | 286 | 0.0 | 0.0 | 0.00 | 0.00 | 0.00 | 95 | 1025.1 |
| 20260903051108 | 55 | 286 | 0.0 | 0.0 | 0.00 | 0.00 | 0.00 | 94 | 1025.1 |
| 20260903051039 | 55 | 286 | 0.0 | 0.0 | 0.00 | 0.00 | 0.00 | 94 | 1025.2 |
| 20260903051026 | 55 | 286 | 0.0 | 0.0 | 0.00 | 0.00 | 0.00 | 95 | 1025.1 |
| 20260903050541 | 56 | 286 | 0.0 | 0.0 | 0.00 | 0.00 | 0.00 | 95 | 1025.1 |
| 20260903050513 | 56 | 286 | 0.0 | 0.0 | 0.00 | 0.00 | 0.00 | 95 | 1025.1 |
| 20260903045807 | 56 | 286 | 0.0 | 0.0 | 0.00 | 0.00 | 0.00 | 95 | 1025.1 |
| 20260903045636 | 56 | 286 | 0.0 | 0.0 | 0.00 | 0.00 | 0.00 | 95 | 1025.0 |
| 20260903045448 | 56 | 286 | 0.0 | 0.0 | 0.00 | 0.00 | 0.00 | 95 | 1025.0 |
| 20260903045407 | 56 | 286 | 0.0 | 0.0 | 0.00 | 0.00 | 0.00 | 95 | 1024.9 |
| 20260903045037 | 56 | 286 | 0.0 | 0.0 | 0.00 | 0.00 | 0.00 | 95 | 1025.0 |
| 20260903044838 | 56 | 286 | 0.0 | 0.0 | 0.00 | 0.00 | 0.00 | 95 | 1024.9 |
| 20260903044745 | 56 | 286 | 0.0 | 0.0 | 0.00 | 0.00 | 0.00 | 95 | 1024.9 |
| 20260903044600 | 56 | 286 | 0.0 | 0.0 | 0.00 | 0.00 | 0.00 | 95 | 1024.9 |
| 20260903044512 | 56 | 286 | 0.0 | 0.0 | 0.00 | 0.00 | 0.00 | 95 | 1024.9 |
| 20260903044443 | 56 | 286 | 0.0 | 0.0 | 0.00 | 0.00 | 0.00 | 95 | 1024.7 |
| 20260903043738 | 56 | 286 | 0.0 | 0.0 | 0.00 | 0.00 | 0.00 | 95 | 1024.6 |
| 20260903043728 | 56 | 286 | 0.0 | 0.0 | 0.00 | 0.00 | 0.00 | 95 | 1024.7 |
| 20260903043516 | 56 | 286 | 0.0 | 0.0 | 0.00 | 0.00 | 0.00 | 95 | 1024.7 |
| 20260903043418 | 56 | 286 | 0.0 | 0.0 | 0.00 | 0.00 | 0.00 | 94 | 1024.6 |
| 20260903043024 | 56 | 286 | 0.0 | 0.0 | 0.00 | 0.00 | 0.00 | 94 | 1024.6 |
| 20260903042812 | 56 | 286 | 0.0 | 0.0 | 0.00 | 0.00 | 0.00 | 94 | 1024.6 |
| 20260903042641 | 56 | 286 | 0.0 | 0.0 | 0.00 | 0.00 | 0.00 | 94 | 1024.7 |
| 20260903042626 | 56 | 286 | 0.0 | 0.0 | 0.00 | 0.00 | 0.00 | 94 | 1024.6 |
| 20260903042406 | 56 | 286 | 0.0 | 0.0 | 0.00 | 0.00 | 0.00 | 94 | 1024.7 |
| 20260903042216 | 56 | 286 | 0.0 | 0.0 | 0.00 | 0.00 | 0.00 | 94 | 1024.7 |
| 20260903042147 | 56 | 286 | 0.0 | 0.0 | 0.00 | 0.00 | 0.00 | 94 | 1024.6 |
| 20260903042101 | 56 | 286 | 0.0 | 0.0 | 0.00 | 0.00 | 0.00 | 94 | 1024.7 |
| 20260903041906 | 56 | 286 | 0.0 | 0.0 | 0.00 | 0.00 | 0.00 | 94 | 1024.7 |
| 20260903041825 | 56 | 286 | 0.0 | 0.0 | 0.00 | 0.00 | 0.00 | 94 | 1024.9 |
| 20260903041811 | 56 | 286 | 0.0 | 0.0 | 0.00 | 0.00 | 0.00 | 94 | 1024.7 |
| 20260903041352 | 64 | 282 | 0.0 | 0.0 | 0.00 | 0.00 | 0.00 | 82 | 1025.4 |
| 20260903041236 | 56 | 286 | 0.0 | 0.0 | 0.00 | 0.00 | 0.00 | 94 | 1024.7 |
| 20260903041148 | 56 | 286 | 0.0 | 0.0 | 0.00 | 0.00 | 0.00 | 94 | 1024.7 |
| 20260903041055 | 56 | 286 | 0.0 | 0.0 | 0.00 | 0.00 | 0.00 | 94 | 1024.7 |
| 20260903040909 | 56 | 286 | 0.0 | 0.0 | 0.00 | 0.00 | 0.00 | 94 | 1024.6 |
| 20260903040810 | 56 | 286 | 0.0 | 0.0 | 0.00 | 0.00 | 0.00 | 94 | 1024.7 |
| 20260903040218 | 56 | 286 | 0.0 | 0.0 | 0.00 | 0.00 | 0.00 | 94 | 1024.7 |
| 20260903040132 | 56 | 286 | 0.0 | 0.0 | 0.00 | 0.00 | 0.00 | 94 | 1024.7 |
| 20260903040035 | 56 | 286 | 0.0 | 0.0 | 0.00 | 0.00 | 0.00 | 94 | 1024.6 |
| 20260903035815 | 56 | 286 | 0.0 | 0.0 | 0.00 | 0.00 | 0.00 | 94 | 1024.7 |
| 20260903035745 | 64 | 282 | 0.0 | 2.0 | 0.00 | 0.00 | 0.00 | 82 | 1025.3 |
| 20260903035627 | 56 | 286 | 0.0 | 0.0 | 0.00 | 0.00 | 0.00 | 94 | 1024.7 |
| 20260903035529 | 56 | 286 | 0.0 | 0.0 | 0.00 | 0.00 | 0.00 | 94 | 1024.7 |
| 20260903035343 | 56 | 286 | 0.0 | 0.0 | 0.00 | 0.00 | 0.00 | 94 | 1024.9 |
| 20260903035317 | 56 | 286 | 0.0 | 0.0 | 0.00 | 0.00 | 0.00 | 94 | 1024.9 |
| 20260903034809 | 56 | 286 | 0.0 | 0.0 | 0.00 | 0.00 | 0.00 | 93 | 1024.9 |
| 20260903034640 | 56 | 286 | 0.0 | 0.0 | 0.00 | 0.00 | 0.00 | 93 | 1024.9 |
| 20260903034510 | 56 | 286 | 0.0 | 0.0 | 0.00 | 0.00 | 0.00 | 94 | 1024.9 |
| 20260903034300 | 56 | 286 | 0.0 | 0.0 | 0.00 | 0.00 | 0.00 | 94 | 1024.7 |
| 20260903033836 | 65 | 282 | 1.0 | 3.0 | 0.00 | 0.00 | 0.00 | 81 | 1025.2 |
| 20260903033804 | 57 | 286 | 0.0 | 0.0 | 0.00 | 0.00 | 0.00 | 94 | 1024.9 |
| 20260903033735 | 65 | 259 | 1.0 | 2.0 | 0.00 | 0.00 | 0.00 | 80 | 1025.1 |
| 20260903033651 | 65 | 259 | 1.0 | 4.0 | 0.00 | 0.00 | 0.00 | 80 | 1025.0 |
| 20260903033601 | 57 | 286 | 0.0 | 0.0 | 0.00 | 0.00 | 0.00 | 94 | 1024.7 |
| 20260903033455 | 57 | 286 | 0.0 | 0.0 | 0.00 | 0.00 | 0.00 | 94 | 1024.7 |
| 20260903033203 | 57 | 286 | 0.0 | 0.0 | 0.00 | 0.00 | 0.00 | 94 | 1024.9 |
| 20260903033142 | 65 | 259 | 3.0 | 4.0 | 0.00 | 0.00 | 0.00 | 79 | 1025.0 |
| 20260903033110 | 57 | 286 | 0.0 | 0.0 | 0.00 | 0.00 | 0.00 | 94 | 1024.9 |
| 20260903033020 | 57 | 286 | 0.0 | 0.0 | 0.00 | 0.00 | 0.00 | 94 | 1024.9 |
| 20260903032817 | 66 | 256 | 2.0 | 3.0 | 0.00 | 0.00 | 0.00 | 79 | 1025.0 |
| 20260903032743 | 57 | 286 | 0.0 | 0.0 | 0.00 | 0.00 | 0.00 | 94 | 1024.9 |
| 20260903032714 | 66 | 297 | 0.0 | 1.0 | 0.00 | 0.00 | 0.00 | 79 | 1024.9 |
| 20260903032547 | 57 | 286 | 0.0 | 0.0 | 0.00 | 0.00 | 0.00 | 94 | 1024.9 |
| 20260903032344 | 57 | 286 | 0.0 | 0.0 | 0.00 | 0.00 | 0.00 | 94 | 1024.9 |
| 20260903032328 | 66 | 297 | 0.0 | 1.0 | 0.00 | 0.00 | 0.00 | 78 | 1024.9 |
| 20260903032306 | 67 | 297 | 0.0 | 2.0 | 0.00 | 0.00 | 0.00 | 78 | 1024.7 |
| 20260903032228 | 67 | 297 | 1.0 | 2.0 | 0.00 | 0.00 | 0.00 | 77 | 1024.9 |
| 20260903032135 | 57 | 286 | 0.0 | 0.0 | 0.00 | 0.00 | 0.00 | 94 | 1024.9 |
| 20260903032050 | 57 | 286 | 0.0 | 0.0 | 0.00 | 0.00 | 0.00 | 94 | 1024.9 |
| 20260903032001 | 57 | 286 | 0.0 | 0.0 | 0.00 | 0.00 | 0.00 | 94 | 1024.9 |
| 20260903031820 | 67 | 321 | 0.0 | 3.0 | 0.00 | 0.00 | 0.00 | 76 | 1024.6 |
| 20260903031737 | 57 | 286 | 0.0 | 0.0 | 0.00 | 0.00 | 0.00 | 94 | 1024.7 |
| 20260903031557 | 57 | 286 | 0.0 | 0.0 | 0.00 | 0.00 | 0.00 | 94 | 1024.7 |
| 20260903031337 | 57 | 286 | 0.0 | 0.0 | 0.00 | 0.00 | 0.00 | 93 | 1024.9 |
| 20260903031155 | 57 | 286 | 0.0 | 0.0 | 0.00 | 0.00 | 0.00 | 93 | 1024.9 |
| 20260903031122 | 57 | 286 | 0.0 | 0.0 | 0.00 | 0.00 | 0.00 | 93 | 1025.0 |
| 20260903031035 | 57 | 286 | 0.0 | 0.0 | 0.00 | 0.00 | 0.00 | 93 | 1025.0 |
| 20260903030848 | 57 | 286 | 0.0 | 0.0 | 0.00 | 0.00 | 0.00 | 93 | 1025.0 |
| 20260903030541 | 57 | 286 | 0.0 | 0.0 | 0.00 | 0.00 | 0.00 | 93 | 1025.0 |
| 20260903030327 | 57 | 286 | 0.0 | 0.0 | 0.00 | 0.00 | 0.00 | 93 | 1025.1 |
| 20260903030227 | 67 | 305 | 1.0 | 3.0 | 0.00 | 0.00 | 0.00 | 75 | 1024.6 |
| 20260903030139 | 57 | 286 | 0.0 | 0.0 | 0.00 | 0.00 | 0.00 | 93 | 1025.1 |
| 20260903030122 | 57 | 286 | 0.0 | 0.0 | 0.00 | 0.00 | 0.00 | 93 | 1025.1 |
| 20260903030040 | 57 | 286 | 0.0 | 0.0 | 0.00 | 0.00 | 0.00 | 93 | 1025.1 |
| 20260903025926 | 57 | 286 | 0.0 | 0.0 | 0.00 | 0.00 | 0.00 | 93 | 1025.1 |
| 20260903025831 | 57 | 286 | 0.0 | 0.0 | 0.00 | 0.00 | 0.00 | 93 | 1025.1 |
| 20260903025338 | 57 | 286 | 0.0 | 0.0 | 0.00 | 0.00 | 0.00 | 93 | 1025.1 |
| 20260903025322 | 57 | 286 | 0.0 | 0.0 | 0.00 | 0.00 | 0.00 | 93 | 1025.1 |
| 20260903025230 | 57 | 286 | 0.0 | 0.0 | 0.00 | 0.00 | 0.00 | 93 | 1025.0 |
| 20260903025053 | 57 | 286 | 0.0 | 0.0 | 0.00 | 0.00 | 0.00 | 93 | 1025.1 |
| 20260903024944 | 57 | 286 | 0.0 | 0.0 | 0.00 | 0.00 | 0.00 | 93 | 1025.1 |
| 20260903024808 | 57 | 286 | 0.0 | 0.0 | 0.00 | 0.00 | 0.00 | 93 | 1025.1 |
| 20260903024711 | 57 | 286 | 0.0 | 0.0 | 0.00 | 0.00 | 0.00 | 93 | 1025.2 |
| 20260903024642 | 57 | 286 | 0.0 | 0.0 | 0.00 | 0.00 | 0.00 | 93 | 1025.1 |
| 20260903024144 | 57 | 286 | 0.0 | 0.0 | 0.00 | 0.00 | 0.00 | 93 | 1025.2 |
| 20260903024045 | 57 | 286 | 0.0 | 0.0 | 0.00 | 0.00 | 0.00 | 93 | 1025.1 |
| 20260903023432 | 57 | 286 | 0.0 | 0.0 | 0.00 | 0.00 | 0.00 | 93 | 1025.1 |
| 20260903023337 | 57 | 286 | 0.0 | 0.0 | 0.00 | 0.00 | 0.00 | 93 | 1025.1 |
| 20260903023229 | 57 | 286 | 0.0 | 0.0 | 0.00 | 0.00 | 0.00 | 93 | 1025.1 |
| 20260903023149 | 57 | 286 | 0.0 | 0.0 | 0.00 | 0.00 | 0.00 | 93 | 1025.0 |
| 20260903022757 | 57 | 286 | 0.0 | 0.0 | 0.00 | 0.00 | 0.00 | 93 | 1025.0 |
| 20260903022713 | 57 | 286 | 0.0 | 0.0 | 0.00 | 0.00 | 0.00 | 92 | 1025.0 |
| 20260903022657 | 57 | 286 | 0.0 | 0.0 | 0.00 | 0.00 | 0.00 | 92 | 1024.9 |
| 20260903022316 | 57 | 286 | 0.0 | 0.0 | 0.00 | 0.00 | 0.00 | 92 | 1024.9 |
| 20260903022222 | 58 | 286 | 0.0 | 0.0 | 0.00 | 0.00 | 0.00 | 92 | 1024.9 |
| 20260903022151 | 58 | 286 | 0.0 | 0.0 | 0.00 | 0.00 | 0.00 | 92 | 1025.0 |
| 20260903021818 | 58 | 286 | 0.0 | 0.0 | 0.00 | 0.00 | 0.00 | 92 | 1024.9 |
| 20260903021059 | 58 | 286 | 0.0 | 0.0 | 0.00 | 0.00 | 0.00 | 92 | 1025.1 |
| 20260903021014 | 58 | 286 | 0.0 | 0.0 | 0.00 | 0.00 | 0.00 | 92 | 1025.0 |
| 20260903020903 | 58 | 286 | 0.0 | 0.0 | 0.00 | 0.00 | 0.00 | 92 | 1025.0 |
| 20260903020816 | 58 | 286 | 0.0 | 0.0 | 0.00 | 0.00 | 0.00 | 92 | 1025.1 |
| 20260903020752 | 58 | 286 | 0.0 | 0.0 | 0.00 | 0.00 | 0.00 | 92 | 1025.0 |
| 20260903020710 | 58 | 286 | 0.0 | 0.0 | 0.00 | 0.00 | 0.00 | 91 | 1025.1 |
| 20260903020248 | 58 | 286 | 0.0 | 0.0 | 0.00 | 0.00 | 0.00 | 91 | 1025.1 |
| 20260903020154 | 58 | 286 | 0.0 | 0.0 | 0.00 | 0.00 | 0.00 | 91 | 1025.0 |
| 20260903020058 | 58 | 286 | 0.0 | 0.0 | 0.00 | 0.00 | 0.00 | 91 | 1025.0 |
| 20260903020034 | 58 | 286 | 0.0 | 0.0 | 0.00 | 0.00 | 0.00 | 91 | 1024.9 |
| 20260903015941 | 58 | 286 | 0.0 | 0.0 | 0.00 | 0.00 | 0.00 | 91 | 1025.0 |
| 20260903015554 | 59 | 286 | 0.0 | 0.0 | 0.00 | 0.00 | 0.00 | 91 | 1025.1 |
| 20260903014643 | 59 | 286 | 0.0 | 2.0 | 0.00 | 0.00 | 0.00 | 91 | 1025.1 |
| 20260903014550 | 59 | 286 | 0.0 | 2.0 | 0.00 | 0.00 | 0.00 | 90 | 1025.1 |
| 20260903014247 | 59 | 286 | 1.0 | 2.0 | 0.00 | 0.00 | 0.00 | 90 | 1025.1 |
| 20260903013813 | 59 | 286 | 1.0 | 2.0 | 0.00 | 0.00 | 0.00 | 90 | 1025.1 |
| 20260903013710 | 59 | 286 | 0.0 | 2.0 | 0.00 | 0.00 | 0.00 | 90 | 1025.0 |
| 20260903013616 | 59 | 265 | 0.0 | 0.0 | 0.00 | 0.00 | 0.00 | 90 | 1025.1 |
| 20260903013521 | 59 | 265 | 0.0 | 0.0 | 0.00 | 0.00 | 0.00 | 89 | 1025.1 |
| 20260903013432 | 59 | 265 | 0.0 | 0.0 | 0.00 | 0.00 | 0.00 | 89 | 1025.1 |
| 20260903013109 | 60 | 265 | 0.0 | 0.0 | 0.00 | 0.00 | 0.00 | 89 | 1025.1 |
| 20260903012730 | 60 | 265 | 0.0 | 0.0 | 0.00 | 0.00 | 0.00 | 89 | 1025.1 |
| 20260903012406 | 60 | 265 | 0.0 | 0.0 | 0.00 | 0.00 | 0.00 | 89 | 1025.2 |
| 20260903012314 | 60 | 265 | 0.0 | 0.0 | 0.00 | 0.00 | 0.00 | 89 | 1025.2 |
| 20260903011654 | 60 | 265 | 0.0 | 0.0 | 0.00 | 0.00 | 0.00 | 89 | 1025.2 |
| 20260903011608 | 60 | 265 | 0.0 | 0.0 | 0.00 | 0.00 | 0.00 | 89 | 1025.1 |
| 20260903011546 | 60 | 265 | 0.0 | 0.0 | 0.00 | 0.00 | 0.00 | 89 | 1025.2 |
| 20260903011506 | 60 | 265 | 0.0 | 0.0 | 0.00 | 0.00 | 0.00 | 89 | 1025.2 |
| 20260903011349 | 60 | 265 | 0.0 | 0.0 | 0.00 | 0.00 | 0.00 | 88 | 1025.2 |
| 20260903010741 | 60 | 265 | 0.0 | 0.0 | 0.00 | 0.00 | 0.00 | 89 | 1025.3 |
| 20260903010703 | 60 | 265 | 0.0 | 0.0 | 0.00 | 0.00 | 0.00 | 89 | 1025.2 |
| 20260903010634 | 60 | 265 | 0.0 | 0.0 | 0.00 | 0.00 | 0.00 | 89 | 1025.3 |
| 20260903010551 | 60 | 265 | 0.0 | 0.0 | 0.00 | 0.00 | 0.00 | 88 | 1025.2 |
| 20260903010503 | 60 | 265 | 0.0 | 0.0 | 0.00 | 0.00 | 0.00 | 88 | 1025.2 |
| 20260903010444 | 60 | 265 | 0.0 | 0.0 | 0.00 | 0.00 | 0.00 | 88 | 1025.3 |
| 20260903010356 | 60 | 265 | 0.0 | 0.0 | 0.00 | 0.00 | 0.00 | 88 | 1025.2 |
| 20260903010311 | 60 | 265 | 0.0 | 0.0 | 0.00 | 0.00 | 0.00 | 88 | 1025.2 |
| 20260903010236 | 60 | 265 | 0.0 | 0.0 | 0.00 | 0.00 | 0.00 | 88 | 1025.2 |
| 20260903010205 | 60 | 265 | 0.0 | 0.0 | 0.00 | 0.00 | 0.00 | 88 | 1025.3 |
| 20260903010122 | 61 | 265 | 0.0 | 0.0 | 0.00 | 0.00 | 0.00 | 88 | 1025.3 |
| 20260903005813 | 61 | 265 | 0.0 | 0.0 | 0.00 | 0.00 | 0.00 | 88 | 1025.3 |
| 20260903005732 | 61 | 265 | 0.0 | 0.0 | 0.00 | 0.00 | 0.00 | 88 | 1025.3 |
| 20260903005612 | 61 | 265 | 0.0 | 0.0 | 0.00 | 0.00 | 0.00 | 88 | 1025.3 |
| 20260903005530 | 61 | 265 | 0.0 | 0.0 | 0.00 | 0.00 | 0.00 | 88 | 1025.3 |
| 20260903005427 | 61 | 265 | 0.0 | 0.0 | 0.00 | 0.00 | 0.00 | 87 | 1025.3 |
| 20260903005348 | 61 | 265 | 0.0 | 0.0 | 0.00 | 0.00 | 0.00 | 87 | 1025.3 |
| 20260903005313 | 61 | 265 | 0.0 | 0.0 | 0.00 | 0.00 | 0.00 | 87 | 1025.3 |
| 20260903005227 | 61 | 265 | 0.0 | 0.0 | 0.00 | 0.00 | 0.00 | 87 | 1025.3 |
| 20260903004852 | 61 | 265 | 0.0 | 0.0 | 0.00 | 0.00 | 0.00 | 86 | 1025.3 |
| 20260903004807 | 61 | 265 | 0.0 | 0.0 | 0.00 | 0.00 | 0.00 | 86 | 1025.3 |
| 20260903004432 | 61 | 265 | 0.0 | 0.0 | 0.00 | 0.00 | 0.00 | 86 | 1025.3 |
| 20260903004100 | 61 | 265 | 0.0 | 0.0 | 0.00 | 0.00 | 0.00 | 86 | 1025.4 |
| 20260903003944 | 61 | 265 | 0.0 | 0.0 | 0.00 | 0.00 | 0.00 | 86 | 1025.3 |
| 20260903003907 | 61 | 265 | 0.0 | 0.0 | 0.00 | 0.00 | 0.00 | 86 | 1025.3 |
| 20260903003814 | 62 | 265 | 0.0 | 0.0 | 0.00 | 0.00 | 0.00 | 86 | 1025.4 |
| 20260903002843 | 62 | 265 | 0.0 | 0.0 | 0.00 | 0.00 | 0.00 | 86 | 1025.2 |
| 20260903002743 | 62 | 265 | 0.0 | 0.0 | 0.00 | 0.00 | 0.00 | 86 | 1025.3 |
| 20260903002641 | 62 | 265 | 0.0 | 0.0 | 0.00 | 0.00 | 0.00 | 86 | 1025.3 |
| 20260903002328 | 62 | 265 | 0.0 | 0.0 | 0.00 | 0.00 | 0.00 | 85 | 1025.2 |
| 20260903002232 | 62 | 265 | 0.0 | 0.0 | 0.00 | 0.00 | 0.00 | 85 | 1025.3 |
| 20260903002156 | 62 | 265 | 0.0 | 0.0 | 0.00 | 0.00 | 0.00 | 85 | 1025.2 |
| 20260903001844 | 62 | 265 | 0.0 | 0.0 | 0.00 | 0.00 | 0.00 | 85 | 1025.3 |
| 20260903001524 | 62 | 265 | 0.0 | 2.0 | 0.00 | 0.00 | 0.00 | 85 | 1025.3 |
| 20260903001504 | 62 | 265 | 0.0 | 2.0 | 0.00 | 0.00 | 0.00 | 85 | 1025.3 |
| 20260903001430 | 62 | 265 | 0.0 | 2.0 | 0.00 | 0.00 | 0.00 | 85 | 1025.4 |
| 20260903001314 | 62 | 265 | 0.0 | 2.0 | 0.00 | 0.00 | 0.00 | 85 | 1025.3 |
| 20260903001224 | 62 | 265 | 0.0 | 2.0 | 0.00 | 0.00 | 0.00 | 85 | 1025.4 |
| 20260903001110 | 62 | 265 | 1.0 | 2.0 | 0.00 | 0.00 | 0.00 | 85 | 1025.3 |
| 20260903001024 | 62 | 265 | 1.0 | 2.0 | 0.00 | 0.00 | 0.00 | 85 | 1025.4 |
| 20260903000947 | 62 | 265 | 0.0 | 2.0 | 0.00 | 0.00 | 0.00 | 85 | 1025.4 |
| 20260903000509 | 63 | 265 | 1.0 | 2.0 | 0.00 | 0.00 | 0.00 | 85 | 1025.5 |
| 20260903000355 | 63 | 265 | 1.0 | 2.0 | 0.00 | 0.00 | 0.00 | 84 | 1025.4 |
| 20260902235944 | 63 | 265 | 0.0 | 2.0 | 0.00 | 0.00 | 0.00 | 84 | 1025.4 |
| 20260902235859 | 63 | 265 | 0.0 | 2.0 | 0.00 | 0.00 | 0.00 | 84 | 1025.3 |
| 20260902235747 | 63 | 265 | 0.0 | 1.0 | 0.00 | 0.00 | 0.00 | 84 | 1025.4 |
| 20260902235643 | 63 | 265 | 0.0 | 1.0 | 0.00 | 0.00 | 0.00 | 84 | 1025.5 |
| 20260902235551 | 63 | 265 | 0.0 | 1.0 | 0.00 | 0.00 | 0.00 | 84 | 1025.4 |
| 20260902235507 | 63 | 265 | 0.0 | 1.0 | 0.00 | 0.00 | 0.00 | 84 | 1025.3 |
| 20260902235431 | 63 | 265 | 0.0 | 1.0 | 0.00 | 0.00 | 0.00 | 84 | 1025.4 |
| 20260902235051 | 63 | 265 | 0.0 | 1.0 | 0.00 | 0.00 | 0.00 | 84 | 1025.4 |
| 20260902235004 | 63 | 265 | 0.0 | 1.0 | 0.00 | 0.00 | 0.00 | 83 | 1025.5 |
| 20260902234858 | 63 | 265 | 0.0 | 2.0 | 0.00 | 0.00 | 0.00 | 83 | 1025.5 |
| 20260902234754 | 64 | 265 | 0.0 | 2.0 | 0.00 | 0.00 | 0.00 | 83 | 1025.5 |
| 20260902234731 | 64 | 265 | 0.0 | 2.0 | 0.00 | 0.00 | 0.00 | 83 | 1025.4 |
| 20260902234700 | 64 | 265 | 0.0 | 2.0 | 0.00 | 0.00 | 0.00 | 83 | 1025.5 |
| 20260902234615 | 64 | 265 | 0.0 | 2.0 | 0.00 | 0.00 | 0.00 | 83 | 1025.5 |
| 20260902234513 | 64 | 265 | 1.0 | 2.0 | 0.00 | 0.00 | 0.00 | 83 | 1025.4 |
| 20260902233842 | 64 | 271 | 1.0 | 2.0 | 0.00 | 0.00 | 0.00 | 83 | 1025.3 |
| 20260902233806 | 64 | 282 | 1.0 | 2.0 | 0.00 | 0.00 | 0.00 | 83 | 1025.3 |
| 20260902233726 | 64 | 282 | 0.0 | 2.0 | 0.00 | 0.00 | 0.00 | 83 | 1025.4 |
| 20260902233312 | 64 | 282 | 1.0 | 2.0 | 0.00 | 0.00 | 0.00 | 83 | 1025.4 |
| 20260902232900 | 64 | 282 | 0.0 | 2.0 | 0.00 | 0.00 | 0.00 | 82 | 1025.3 |
| 20260902232822 | 64 | 282 | 0.0 | 2.0 | 0.00 | 0.00 | 0.00 | 82 | 1025.3 |
| 20260902232443 | 64 | 282 | 0.0 | 0.0 | 0.00 | 0.00 | 0.00 | 82 | 1025.3 |
| 20260902232135 | 64 | 282 | 0.0 | 2.0 | 0.00 | 0.00 | 0.00 | 82 | 1025.3 |
| 20260902232050 | 64 | 282 | 0.0 | 2.0 | 0.00 | 0.00 | 0.00 | 82 | 1025.3 |
| 20260902231957 | 64 | 282 | 0.0 | 2.0 | 0.00 | 0.00 | 0.00 | 82 | 1025.3 |
| 20260902231930 | 64 | 282 | 0.0 | 2.0 | 0.00 | 0.00 | 0.00 | 82 | 1025.3 |
| 20260902231856 | 65 | 282 | 0.0 | 2.0 | 0.00 | 0.00 | 0.00 | 82 | 1025.3 |
| 20260902231743 | 65 | 282 | 1.0 | 3.0 | 0.00 | 0.00 | 0.00 | 81 | 1025.2 |
| 20260902231642 | 65 | 282 | 1.0 | 3.0 | 0.00 | 0.00 | 0.00 | 81 | 1025.2 |
| 20260902231257 | 65 | 282 | 1.0 | 3.0 | 0.00 | 0.00 | 0.00 | 81 | 1025.2 |
| 20260902231144 | 65 | 282 | 0.0 | 3.0 | 0.00 | 0.00 | 0.00 | 81 | 1025.2 |
| 20260902231057 | 65 | 279 | 1.0 | 3.0 | 0.00 | 0.00 | 0.00 | 81 | 1025.1 |
| 20260902231002 | 65 | 279 | 1.0 | 3.0 | 0.00 | 0.00 | 0.00 | 81 | 1025.1 |
| 20260902230846 | 65 | 259 | 0.0 | 2.0 | 0.00 | 0.00 | 0.00 | 81 | 1025.1 |
| 20260902230750 | 65 | 259 | 0.0 | 2.0 | 0.00 | 0.00 | 0.00 | 80 | 1025.2 |
| 20260902230642 | 65 | 259 | 0.0 | 2.0 | 0.00 | 0.00 | 0.00 | 80 | 1025.2 |
| 20260902230540 | 65 | 259 | 1.0 | 2.0 | 0.00 | 0.00 | 0.00 | 80 | 1025.2 |
| 20260902230212 | 65 | 259 | 1.0 | 4.0 | 0.00 | 0.00 | 0.00 | 80 | 1025.2 |
| 20260902230125 | 65 | 259 | 1.0 | 4.0 | 0.00 | 0.00 | 0.00 | 80 | 1025.1 |
| 20260902225758 | 65 | 259 | 1.0 | 4.0 | 0.00 | 0.00 | 0.00 | 80 | 1025.0 |
| 20260902225626 | 65 | 259 | 1.0 | 4.0 | 0.00 | 0.00 | 0.00 | 80 | 1025.0 |
| 20260902225227 | 65 | 253 | 3.0 | 4.0 | 0.00 | 0.00 | 0.00 | 79 | 1025.0 |
| 20260902225142 | 65 | 252 | 2.0 | 4.0 | 0.00 | 0.00 | 0.00 | 79 | 1025.0 |
| 20260902224638 | 66 | 265 | 2.0 | 3.0 | 0.00 | 0.00 | 0.00 | 79 | 1025.0 |
| 20260902224505 | 66 | 273 | 2.0 | 3.0 | 0.00 | 0.00 | 0.00 | 79 | 1024.9 |
| 20260902224340 | 66 | 272 | 1.0 | 3.0 | 0.00 | 0.00 | 0.00 | 79 | 1024.9 |
| 20260902224259 | 66 | 272 | 2.0 | 3.0 | 0.00 | 0.00 | 0.00 | 79 | 1024.9 |
| 20260902224217 | 66 | 272 | 1.0 | 3.0 | 0.00 | 0.00 | 0.00 | 79 | 1025.0 |
| 20260902224040 | 66 | 297 | 0.0 | 2.0 | 0.00 | 0.00 | 0.00 | 79 | 1024.9 |
| 20260902223936 | 66 | 297 | 0.0 | 1.0 | 0.00 | 0.00 | 0.00 | 79 | 1024.9 |
| 20260902223551 | 66 | 297 | 0.0 | 1.0 | 0.00 | 0.00 | 0.00 | 78 | 1024.9 |
| 20260902223153 | 66 | 297 | 0.0 | 1.0 | 0.00 | 0.00 | 0.00 | 78 | 1024.9 |
| 20260902223108 | 66 | 297 | 0.0 | 1.0 | 0.00 | 0.00 | 0.00 | 78 | 1024.9 |
| 20260902223007 | 67 | 297 | 0.0 | 2.0 | 0.00 | 0.00 | 0.00 | 77 | 1024.9 |
| 20260902222648 | 67 | 297 | 0.0 | 2.0 | 0.00 | 0.00 | 0.00 | 78 | 1024.7 |
| 20260902222553 | 67 | 297 | 0.0 | 2.0 | 0.00 | 0.00 | 0.00 | 77 | 1024.9 |
| 20260902222210 | 67 | 297 | 1.0 | 2.0 | 0.00 | 0.00 | 0.00 | 77 | 1024.9 |
| 20260902222115 | 67 | 297 | 1.0 | 3.0 | 0.00 | 0.00 | 0.00 | 77 | 1024.7 |
| 20260902222001 | 67 | 297 | 1.0 | 3.0 | 0.00 | 0.00 | 0.00 | 77 | 1024.7 |
| 20260902221854 | 67 | 297 | 0.0 | 3.0 | 0.00 | 0.00 | 0.00 | 76 | 1024.7 |
| 20260902221847 | 67 | 297 | 0.0 | 3.0 | 0.00 | 0.00 | 0.00 | 76 | 1024.7 |
| 20260902221726 | 67 | 297 | 1.0 | 3.0 | 0.00 | 0.00 | 0.00 | 76 | 1024.7 |
| 20260902221549 | 67 | 297 | 1.0 | 3.0 | 0.00 | 0.00 | 0.00 | 76 | 1024.7 |
| 20260902221508 | 67 | 297 | 1.0 | 2.0 | 0.00 | 0.00 | 0.00 | 76 | 1024.7 |
| 20260902221342 | 67 | 319 | 0.0 | 3.0 | 0.00 | 0.00 | 0.00 | 76 | 1024.7 |
| 20260902221248 | 67 | 321 | 0.0 | 3.0 | 0.00 | 0.00 | 0.00 | 76 | 1024.7 |
| 20260902220852 | 67 | 321 | 0.0 | 3.0 | 0.00 | 0.00 | 0.00 | 76 | 1024.7 |
| 20260902220739 | 67 | 321 | 0.0 | 3.0 | 0.00 | 0.00 | 0.00 | 76 | 1024.7 |
| 20260902220723 | 67 | 321 | 1.0 | 3.0 | 0.00 | 0.00 | 0.00 | 76 | 1024.6 |
| 20260902220618 | 67 | 321 | 0.0 | 3.0 | 0.00 | 0.00 | 0.00 | 76 | 1024.7 |
| 20260902220508 | 67 | 305 | 1.0 | 3.0 | 0.00 | 0.00 | 0.00 | 76 | 1024.7 |
| 20260902220122 | 68 | 305 | 1.0 | 3.0 | 0.00 | 0.00 | 0.00 | 75 | 1024.5 |
| 20260902220007 | 68 | 279 | 1.0 | 3.0 | 0.00 | 0.00 | 0.00 | 75 | 1024.5 |
| 20260902215836 | 68 | 275 | 1.0 | 3.0 | 0.00 | 0.00 | 0.00 | 75 | 1024.5 |
| 20260902215730 | 68 | 271 | 0.0 | 3.0 | 0.00 | 0.00 | 0.00 | 75 | 1024.5 |
| 20260902215626 | 68 | 271 | 0.0 | 3.0 | 0.00 | 0.00 | 0.00 | 75 | 1024.6 |
| 20260902215346 | 68 | 271 | 1.0 | 3.0 | 0.00 | 0.00 | 0.00 | 75 | 1024.5 |
| 20260902214803 | 68 | 326 | 1.0 | 3.0 | 0.00 | 0.00 | 0.00 | 75 | 1024.5 |
| 20260902214347 | 68 | 326 | 1.0 | 3.0 | 0.00 | 0.00 | 0.00 | 75 | 1024.4 |
| 20260902214011 | 68 | 326 | 1.0 | 3.0 | 0.00 | 0.00 | 0.00 | 74 | 1024.4 |
| 20260902213841 | 68 | 326 | 1.0 | 3.0 | 0.00 | 0.00 | 0.00 | 74 | 1024.4 |
| 20260902213525 | 68 | 326 | 1.0 | 4.0 | 0.00 | 0.00 | 0.00 | 74 | 1024.4 |
| 20260902213005 | 69 | 313 | 1.0 | 5.0 | 0.00 | 0.00 | 0.00 | 74 | 1024.4 |
| 20260902212932 | 69 | 313 | 1.0 | 5.0 | 0.00 | 0.00 | 0.00 | 74 | 1024.4 |
| 20260902212134 | 69 | 342 | 2.0 | 6.0 | 0.00 | 0.00 | 0.00 | 74 | 1024.4 |
| 20260902212010 | 69 | 341 | 2.0 | 6.0 | 0.00 | 0.00 | 0.00 | 74 | 1024.3 |
| 20260902211901 | 69 | 318 | 1.0 | 6.0 | 0.00 | 0.00 | 0.00 | 74 | 1024.3 |
| 20260902211810 | 69 | 318 | 1.0 | 6.0 | 0.00 | 0.00 | 0.00 | 74 | 1024.3 |
| 20260902211715 | 69 | 339 | 0.0 | 4.0 | 0.00 | 0.00 | 0.00 | 73 | 1024.3 |
| 20260902211621 | 69 | 339 | 0.0 | 4.0 | 0.00 | 0.00 | 0.00 | 73 | 1024.3 |
| 20260902211311 | 69 | 339 | 0.0 | 4.0 | 0.00 | 0.00 | 0.00 | 73 | 1024.3 |
| 20260902211202 | 69 | 328 | 1.0 | 4.0 | 0.00 | 0.00 | 0.00 | 73 | 1024.3 |
| 20260902211039 | 69 | 323 | 0.0 | 2.0 | 0.00 | 0.00 | 0.00 | 73 | 1024.3 |
| 20260902210954 | 69 | 316 | 0.0 | 1.0 | 0.00 | 0.00 | 0.00 | 72 | 1024.4 |
| 20260902210907 | 69 | 312 | 0.0 | 1.0 | 0.00 | 0.00 | 0.00 | 72 | 1024.3 |
| 20260902210759 | 70 | 300 | 0.0 | 2.0 | 0.00 | 0.00 | 0.00 | 72 | 1024.3 |
| 20260902210429 | 70 | 300 | 0.0 | 2.0 | 0.00 | 0.00 | 0.00 | 72 | 1024.3 |
| 20260902210345 | 70 | 300 | 0.0 | 2.0 | 0.00 | 0.00 | 0.00 | 71 | 1024.3 |
| 20260902210250 | 70 | 300 | 0.0 | 4.0 | 0.00 | 0.00 | 0.00 | 71 | 1024.3 |
| 20260902210226 | 70 | 300 | 0.0 | 4.0 | 0.00 | 0.00 | 0.00 | 71 | 1024.3 |
| 20260902210137 | 70 | 300 | 1.0 | 4.0 | 0.00 | 0.00 | 0.00 | 71 | 1024.3 |
| 20260902205648 | 71 | 300 | 1.0 | 4.0 | 0.00 | 0.00 | 0.00 | 70 | 1024.3 |
| 20260902205523 | 71 | 290 | 2.0 | 4.0 | 0.00 | 0.00 | 0.00 | 70 | 1024.3 |
| 20260902204452 | 72 | 299 | 2.0 | 5.0 | 0.00 | 0.00 | 0.00 | 68 | 1024.2 |
| 20260902204338 | 72 | 310 | 2.0 | 5.0 | 0.00 | 0.00 | 0.00 | 68 | 1024.2 |
| 20260902203943 | 72 | 309 | 3.0 | 5.0 | 0.00 | 0.00 | 0.00 | 68 | 1024.2 |
| 20260902203419 | 72 | 294 | 3.0 | 4.0 | 0.00 | 0.00 | 0.00 | 68 | 1024.1 |
| 20260902202919 | 72 | 295 | 2.0 | 4.0 | 0.00 | 0.00 | 0.00 | 67 | 1024.0 |
| 20260902202537 | 73 | 290 | 2.0 | 4.0 | 0.00 | 0.00 | 0.00 | 67 | 1024.1 |
| 20260902202408 | 73 | 293 | 3.0 | 4.0 | 0.00 | 0.00 | 0.00 | 67 | 1024.0 |
| 20260902202001 | 73 | 286 | 3.0 | 4.0 | 0.00 | 0.00 | 0.00 | 67 | 1023.9 |
| 20260902201828 | 73 | 282 | 2.0 | 4.0 | 0.00 | 0.00 | 0.00 | 67 | 1023.9 |
| 20260902201649 | 73 | 302 | 2.0 | 4.0 | 0.00 | 0.00 | 0.00 | 66 | 1023.9 |
| 20260902201623 | 73 | 302 | 2.0 | 4.0 | 0.00 | 0.00 | 0.00 | 66 | 1023.9 |
| 20260902201510 | 73 | 292 | 2.0 | 4.0 | 0.00 | 0.00 | 0.00 | 66 | 1023.9 |
| 20260902201022 | 74 | 300 | 2.0 | 6.0 | 0.00 | 0.00 | 0.00 | 65 | 1023.8 |
| 20260902200859 | 74 | 293 | 2.0 | 6.0 | 0.00 | 0.00 | 0.00 | 65 | 1023.8 |
| 20260902200731 | 74 | 311 | 3.0 | 6.0 | 0.00 | 0.00 | 0.00 | 65 | 1023.7 |
| 20260902200705 | 74 | 311 | 3.0 | 6.0 | 0.00 | 0.00 | 0.00 | 65 | 1023.7 |
| 20260902200238 | 74 | 286 | 4.0 | 6.0 | 0.00 | 0.00 | 0.00 | 65 | 1023.6 |
| 20260902200118 | 74 | 298 | 3.0 | 6.0 | 0.00 | 0.00 | 0.00 | 65 | 1023.6 |
| 20260902200054 | 74 | 265 | 3.0 | 7.0 | 0.00 | 0.00 | 0.00 | 65 | 1023.5 |
| 20260902195913 | 74 | 263 | 3.0 | 7.0 | 0.00 | 0.00 | 0.00 | 64 | 1023.5 |
| 20260902195619 | 74 | 288 | 3.0 | 7.0 | 0.00 | 0.00 | 0.00 | 64 | 1023.5 |
| 20260902195223 | 75 | 282 | 4.0 | 7.0 | 0.00 | 0.00 | 0.00 | 63 | 1023.4 |
| 20260902194755 | 75 | 285 | 4.0 | 7.0 | 0.00 | 0.00 | 0.00 | 63 | 1023.3 |
| 20260902194458 | 75 | 275 | 4.0 | 7.0 | 0.00 | 0.00 | 0.00 | 63 | 1023.2 |
| 20260902194338 | 75 | 295 | 4.0 | 7.0 | 0.00 | 0.00 | 0.00 | 63 | 1023.2 |
| 20260902193950 | 76 | 279 | 4.0 | 7.0 | 0.00 | 0.00 | 0.00 | 62 | 1023.2 |
| 20260902193917 | 76 | 282 | 3.0 | 7.0 | 0.00 | 0.00 | 0.00 | 62 | 1023.2 |
| 20260902193247 | 76 | 266 | 4.0 | 8.0 | 0.00 | 0.00 | 0.00 | 62 | 1023.1 |
| 20260902193128 | 76 | 256 | 4.0 | 8.0 | 0.00 | 0.00 | 0.00 | 62 | 1023.0 |
| 20260902192947 | 76 | 306 | 3.0 | 8.0 | 0.00 | 0.00 | 0.00 | 62 | 1023.0 |
| 20260902192536 | 76 | 280 | 3.0 | 8.0 | 0.00 | 0.00 | 0.00 | 61 | 1022.9 |
| 20260902192128 | 76 | 294 | 3.0 | 7.0 | 0.00 | 0.00 | 0.00 | 60 | 1022.9 |
| 20260902192002 | 77 | 299 | 4.0 | 7.0 | 0.00 | 0.00 | 0.00 | 60 | 1022.9 |
| 20260902191836 | 77 | 294 | 4.0 | 7.0 | 0.00 | 0.00 | 0.00 | 60 | 1022.8 |
| 20260902191303 | 77 | 288 | 3.0 | 8.0 | 0.00 | 0.00 | 0.00 | 59 | 1022.8 |
| 20260902191147 | 77 | 292 | 3.0 | 8.0 | 0.00 | 0.00 | 0.00 | 59 | 1022.8 |
| 20260902191026 | 78 | 300 | 3.0 | 8.0 | 0.00 | 0.00 | 0.00 | 59 | 1022.8 |
| 20260902190915 | 78 | 302 | 3.0 | 8.0 | 0.00 | 0.00 | 0.00 | 59 | 1022.7 |
| 20260902190529 | 78 | 273 | 4.0 | 8.0 | 0.00 | 0.00 | 0.00 | 58 | 1022.7 |
| 20260902190409 | 78 | 289 | 2.0 | 8.0 | 0.00 | 0.00 | 0.00 | 58 | 1022.7 |
| 20260902190338 | 78 | 323 | 2.0 | 8.0 | 0.00 | 0.00 | 0.00 | 58 | 1022.8 |
| 20260902190225 | 78 | 298 | 3.0 | 8.0 | 0.00 | 0.00 | 0.00 | 58 | 1022.7 |
| 20260902190056 | 78 | 298 | 3.0 | 8.0 | 0.00 | 0.00 | 0.00 | 58 | 1022.7 |
| 20260902185928 | 79 | 302 | 3.0 | 8.0 | 0.00 | 0.00 | 0.00 | 57 | 1022.7 |
| 20260902185911 | 79 | 302 | 3.0 | 8.0 | 0.00 | 0.00 | 0.00 | 57 | 1022.7 |
| 20260902185715 | 79 | 296 | 3.0 | 8.0 | 0.00 | 0.00 | 0.00 | 57 | 1022.6 |
| 20260902185307 | 79 | 323 | 3.0 | 7.0 | 0.00 | 0.00 | 0.00 | 57 | 1022.6 |
| 20260902185159 | 79 | 302 | 3.0 | 7.0 | 0.00 | 0.00 | 0.00 | 56 | 1022.6 |
| 20260902185026 | 80 | 315 | 3.0 | 7.0 | 0.00 | 0.00 | 0.00 | 56 | 1022.5 |
| 20260902184907 | 80 | 315 | 3.0 | 9.0 | 0.00 | 0.00 | 0.00 | 56 | 1022.5 |
| 20260902184831 | 80 | 294 | 2.0 | 9.0 | 0.00 | 0.00 | 0.00 | 56 | 1022.5 |
| 20260902184647 | 80 | 306 | 3.0 | 9.0 | 0.00 | 0.00 | 0.00 | 56 | 1022.5 |
| 20260902183906 | 81 | 303 | 2.0 | 5.0 | 0.00 | 0.00 | 0.00 | 55 | 1022.5 |
| 20260902183833 | 81 | 303 | 2.0 | 5.0 | 0.00 | 0.00 | 0.00 | 55 | 1022.5 |
| 20260902183440 | 81 | 303 | 2.0 | 5.0 | 0.00 | 0.00 | 0.00 | 54 | 1022.4 |
| 20260902183007 | 82 | 315 | 3.0 | 5.0 | 0.00 | 0.00 | 0.00 | 54 | 1022.5 |
| 20260902182854 | 82 | 315 | 2.0 | 5.0 | 0.00 | 0.00 | 0.00 | 53 | 1022.5 |
| 20260902182826 | 82 | 306 | 2.0 | 5.0 | 0.00 | 0.00 | 0.00 | 53 | 1022.4 |
| 20260902182651 | 82 | 325 | 2.0 | 7.0 | 0.00 | 0.00 | 0.00 | 53 | 1022.4 |
| 20260902182150 | 82 | 309 | 3.0 | 7.0 | 0.00 | 0.00 | 0.00 | 53 | 1022.4 |
| 20260902182014 | 82 | 295 | 3.0 | 7.0 | 0.00 | 0.00 | 0.00 | 53 | 1022.4 |
| 20260902181851 | 83 | 319 | 3.0 | 8.0 | 0.00 | 0.00 | 0.00 | 52 | 1022.3 |
| 20260902181823 | 83 | 320 | 3.0 | 8.0 | 0.00 | 0.00 | 0.00 | 52 | 1022.3 |
| 20260902181650 | 83 | 306 | 4.0 | 9.0 | 0.00 | 0.00 | 0.00 | 53 | 1022.3 |
| 20260902181224 | 83 | 312 | 3.0 | 9.0 | 0.00 | 0.00 | 0.00 | 52 | 1022.3 |
| 20260902181059 | 83 | 348 | 3.0 | 9.0 | 0.00 | 0.00 | 0.00 | 52 | 1022.3 |
| 20260902180920 | 84 | 321 | 4.0 | 9.0 | 0.00 | 0.00 | 0.00 | 51 | 1022.2 |
| 20260902180816 | 84 | 308 | 4.0 | 9.0 | 0.00 | 0.00 | 0.00 | 52 | 1022.3 |
| 20260902180739 | 84 | 309 | 4.0 | 9.0 | 0.00 | 0.00 | 0.00 | 52 | 1022.2 |
| 20260902180601 | 84 | 307 | 6.0 | 9.0 | 0.00 | 0.00 | 0.00 | 51 | 1022.3 |
| 20260902180420 | 84 | 308 | 6.0 | 8.0 | 0.00 | 0.00 | 0.00 | 53 | 1022.2 |
| 20260902180355 | 84 | 306 | 4.0 | 8.0 | 0.00 | 0.00 | 0.00 | 53 | 1022.1 |
| 20260902180227 | 85 | 244 | 2.0 | 7.0 | 0.00 | 0.00 | 0.00 | 54 | 1022.1 |
| 20260902175811 | 85 | 227 | 2.0 | 7.0 | 0.00 | 0.00 | 0.00 | 53 | 1022.0 |
| 20260902175253 | 85 | 217 | 4.0 | 10.0 | 0.00 | 0.00 | 0.00 | 53 | 1022.1 |
| 20260902175138 | 85 | 269 | 4.0 | 10.0 | 0.00 | 0.00 | 0.00 | 52 | 1022.1 |
| 20260902174956 | 85 | 262 | 4.0 | 10.0 | 0.00 | 0.00 | 0.00 | 52 | 1022.0 |
| 20260902174536 | 85 | 267 | 2.0 | 8.0 | 0.00 | 0.00 | 0.00 | 53 | 1022.1 |
| 20260902174216 | 85 | 220 | 2.0 | 8.0 | 0.00 | 0.00 | 0.00 | 53 | 1022.1 |
| 20260902174043 | 85 | 235 | 3.0 | 8.0 | 0.00 | 0.00 | 0.00 | 52 | 1022.1 |
| 20260902173907 | 86 | 244 | 4.0 | 10.0 | 0.00 | 0.00 | 0.00 | 52 | 1022.1 |
| 20260902173801 | 86 | 253 | 3.0 | 10.0 | 0.00 | 0.00 | 0.00 | 52 | 1022.0 |
| 20260902173707 | 86 | 244 | 3.0 | 10.0 | 0.00 | 0.00 | 0.00 | 52 | 1021.9 |
| 20260902173522 | 86 | 217 | 3.0 | 10.0 | 0.00 | 0.00 | 0.00 | 52 | 1022.0 |
| 20260902173023 | 87 | 248 | 4.0 | 10.0 | 0.00 | 0.00 | 0.00 | 49 | 1022.0 |
| 20260902172846 | 87 | 234 | 3.0 | 7.0 | 0.00 | 0.00 | 0.00 | 49 | 1022.0 |
| 20260902172733 | 87 | 257 | 2.0 | 7.0 | 0.00 | 0.00 | 0.00 | 49 | 1021.9 |
| 20260902172640 | 87 | 228 | 3.0 | 7.0 | 0.00 | 0.00 | 0.00 | 49 | 1021.9 |
| 20260902172455 | 88 | 217 | 2.0 | 7.0 | 0.00 | 0.00 | 0.00 | 47 | 1021.9 |
| 20260902172136 | 88 | 246 | 2.0 | 3.0 | 0.00 | 0.00 | 0.00 | 46 | 1022.0 |
| 20260902172011 | 88 | 240 | 0.0 | 3.0 | 0.00 | 0.00 | 0.00 | 46 | 1022.0 |
| 20260902171840 | 88 | 308 | 1.0 | 3.0 | 0.00 | 0.00 | 0.00 | 47 | 1021.9 |
| 20260902171806 | 88 | 308 | 1.0 | 3.0 | 0.00 | 0.00 | 0.00 | 46 | 1021.9 |
| 20260902171735 | 88 | 308 | 1.0 | 3.0 | 0.00 | 0.00 | 0.00 | 46 | 1021.9 |
| 20260902171243 | 87 | 308 | 1.0 | 5.0 | 0.00 | 0.00 | 0.00 | 47 | 1022.0 |
| 20260902171113 | 87 | 285 | 0.0 | 5.0 | 0.00 | 0.00 | 0.00 | 46 | 1021.9 |
| 20260902170950 | 87 | 306 | 1.0 | 5.0 | 0.00 | 0.00 | 0.00 | 47 | 1021.9 |
| 20260902170909 | 87 | 306 | 2.0 | 5.0 | 0.00 | 0.00 | 0.00 | 46 | 1021.9 |
| 20260902170823 | 87 | 305 | 3.0 | 5.0 | 0.00 | 0.00 | 0.00 | 46 | 1021.9 |
| 20260902170101 | 87 | 269 | 1.0 | 11.0 | 0.00 | 0.00 | 0.00 | 48 | 1021.9 |
| 20260902170010 | 87 | 269 | 2.0 | 11.0 | 0.00 | 0.00 | 0.00 | 47 | 1021.9 |
| 20260902165929 | 86 | 304 | 2.0 | 11.0 | 0.00 | 0.00 | 0.00 | 48 | 1021.9 |
| 20260902165800 | 86 | 285 | 2.0 | 11.0 | 0.00 | 0.00 | 0.00 | 47 | 1021.9 |
| 20260902165431 | 87 | 304 | 4.0 | 11.0 | 0.00 | 0.00 | 0.00 | 47 | 1022.0 |
| 20260902165258 | 87 | 270 | 6.0 | 11.0 | 0.00 | 0.00 | 0.00 | 46 | 1021.9 |
| 20260902165121 | 87 | 272 | 1.0 | 7.0 | 0.00 | 0.00 | 0.00 | 47 | 1022.0 |
| 20260902165024 | 87 | 253 | 1.0 | 7.0 | 0.00 | 0.00 | 0.00 | 48 | 1022.0 |
| 20260902164931 | 87 | 242 | 1.0 | 9.0 | 0.00 | 0.00 | 0.00 | 48 | 1021.9 |
| 20260902164420 | 86 | 292 | 1.0 | 11.0 | 0.00 | 0.00 | 0.00 | 47 | 1022.0 |
| 20260902164403 | 86 | 261 | 1.0 | 11.0 | 0.00 | 0.00 | 0.00 | 47 | 1022.0 |
| 20260902164241 | 86 | 324 | 3.0 | 11.0 | 0.00 | 0.00 | 0.00 | 48 | 1022.1 |
| 20260902164107 | 86 | 288 | 6.0 | 11.0 | 0.00 | 0.00 | 0.00 | 48 | 1022.0 |
| 20260902164001 | 86 | 274 | 4.0 | 11.0 | 0.00 | 0.00 | 0.00 | 47 | 1021.9 |
| 20260902163144 | 86 | 264 | 4.0 | 8.0 | 0.00 | 0.00 | 0.00 | 48 | 1022.0 |
| 20260902163126 | 86 | 221 | 4.0 | 8.0 | 0.00 | 0.00 | 0.00 | 47 | 1022.0 |
| 20260902162954 | 86 | 299 | 5.0 | 8.0 | 0.00 | 0.00 | 0.00 | 47 | 1022.0 |
| 20260902162824 | 87 | 285 | 2.0 | 8.0 | 0.00 | 0.00 | 0.00 | 47 | 1022.1 |
| 20260902162659 | 86 | 256 | 3.0 | 8.0 | 0.00 | 0.00 | 0.00 | 47 | 1022.1 |
| 20260902162621 | 86 | 256 | 3.0 | 8.0 | 0.00 | 0.00 | 0.00 | 47 | 1022.0 |
| 20260902162446 | 87 | 294 | 6.0 | 8.0 | 0.00 | 0.00 | 0.00 | 46 | 1022.1 |
| 20260902162307 | 87 | 266 | 2.0 | 8.0 | 0.00 | 0.00 | 0.00 | 46 | 1022.0 |
| 20260902162245 | 87 | 273 | 2.0 | 8.0 | 0.00 | 0.00 | 0.00 | 46 | 1022.0 |
| 20260902162124 | 87 | 349 | 2.0 | 5.0 | 0.00 | 0.00 | 0.00 | 47 | 1022.0 |
| 20260902161055 | 87 | 288 | 0.0 | 4.0 | 0.00 | 0.00 | 0.00 | 46 | 1022.0 |
| 20260902160903 | 87 | 352 | 0.0 | 4.0 | 0.00 | 0.00 | 0.00 | 47 | 1022.1 |
| 20260902160832 | 87 | 352 | 0.0 | 4.0 | 0.00 | 0.00 | 0.00 | 47 | 1022.0 |
| 20260902160744 | 86 | 352 | 1.0 | 4.0 | 0.00 | 0.00 | 0.00 | 47 | 1022.1 |
| 20260902160639 | 86 | 352 | 1.0 | 4.0 | 0.00 | 0.00 | 0.00 | 47 | 1022.0 |
| 20260902160301 | 86 | 352 | 2.0 | 4.0 | 0.00 | 0.00 | 0.00 | 47 | 1022.1 |
| 20260902160140 | 86 | 352 | 3.0 | 5.0 | 0.00 | 0.00 | 0.00 | 47 | 1022.0 |
| 20260902160001 | 86 | 306 | 2.0 | 5.0 | 0.00 | 0.00 | 0.00 | 49 | 1022.1 |
| 20260902155936 | 86 | 288 | 2.0 | 5.0 | 0.00 | 0.00 | 0.00 | 49 | 1022.1 |
| 20260902155825 | 86 | 213 | 1.0 | 5.0 | 0.00 | 0.00 | 0.00 | 48 | 1022.1 |
| 20260902155652 | 86 | 302 | 2.0 | 5.0 | 0.00 | 0.00 | 0.00 | 49 | 1022.1 |
| 20260902155325 | 86 | 298 | 1.0 | 5.0 | 0.00 | 0.00 | 0.00 | 49 | 1022.0 |
| 20260902155140 | 86 | 346 | 0.0 | 6.0 | 0.00 | 0.00 | 0.00 | 49 | 1022.0 |
| 20260902155023 | 85 | 346 | 2.0 | 6.0 | 0.00 | 0.00 | 0.00 | 49 | 1022.1 |
| 20260902154946 | 85 | 346 | 2.0 | 6.0 | 0.00 | 0.00 | 0.00 | 49 | 1022.1 |
| 20260902154857 | 85 | 331 | 0.0 | 6.0 | 0.00 | 0.00 | 0.00 | 49 | 1022.2 |
| 20260902154744 | 85 | 331 | 3.0 | 6.0 | 0.00 | 0.00 | 0.00 | 49 | 1022.1 |
| 20260902154633 | 85 | 344 | 4.0 | 6.0 | 0.00 | 0.00 | 0.00 | 49 | 1022.2 |
| 20260902154606 | 85 | 352 | 3.0 | 7.0 | 0.00 | 0.00 | 0.00 | 49 | 1022.2 |
| 20260902154435 | 85 | 352 | 2.0 | 7.0 | 0.00 | 0.00 | 0.00 | 50 | 1022.3 |
| 20260902154242 | 85 | 306 | 1.0 | 7.0 | 0.00 | 0.00 | 0.00 | 49 | 1022.3 |
| 20260902154207 | 85 | 306 | 1.0 | 7.0 | 0.00 | 0.00 | 0.00 | 49 | 1022.2 |
| 20260902154102 | 85 | 196 | 2.0 | 7.0 | 0.00 | 0.00 | 0.00 | 49 | 1022.2 |
| 20260902153917 | 85 | 277 | 5.0 | 7.0 | 0.00 | 0.00 | 0.00 | 48 | 1022.2 |
| 20260902153808 | 85 | 301 | 5.0 | 8.0 | 0.00 | 0.00 | 0.00 | 49 | 1022.2 |
| 20260902153740 | 85 | 278 | 3.0 | 8.0 | 0.00 | 0.00 | 0.00 | 48 | 1022.2 |
| 20260902153559 | 85 | 286 | 2.0 | 8.0 | 0.00 | 0.00 | 0.00 | 49 | 1022.2 |
| 20260902153432 | 85 | 46 | 2.0 | 8.0 | 0.00 | 0.00 | 0.00 | 49 | 1022.3 |
| 20260902153408 | 85 | 46 | 2.0 | 8.0 | 0.00 | 0.00 | 0.00 | 49 | 1022.2 |
| 20260902153304 | 85 | 74 | 4.0 | 8.0 | 0.00 | 0.00 | 0.00 | 49 | 1022.1 |
| 20260902153127 | 85 | 9 | 3.0 | 8.0 | 0.00 | 0.00 | 0.00 | 49 | 1022.2 |
| 20260902153010 | 85 | 279 | 2.0 | 4.0 | 0.00 | 0.00 | 0.00 | 50 | 1022.2 |
| 20260902152149 | 85 | 218 | 2.0 | 6.0 | 0.00 | 0.00 | 0.00 | 50 | 1022.2 |
| 20260902151703 | 85 | 277 | 2.0 | 6.0 | 0.00 | 0.00 | 0.00 | 50 | 1022.2 |
| 20260902151631 | 85 | 299 | 1.0 | 6.0 | 0.00 | 0.00 | 0.00 | 50 | 1022.2 |
| 20260902151503 | 85 | 309 | 3.0 | 7.0 | 0.00 | 0.00 | 0.00 | 50 | 1022.3 |
| 20260902151328 | 85 | 309 | 4.0 | 7.0 | 0.00 | 0.00 | 0.00 | 51 | 1022.3 |
| 20260902151253 | 85 | 310 | 4.0 | 7.0 | 0.00 | 0.00 | 0.00 | 49 | 1022.3 |
| 20260902151137 | 85 | 318 | 2.0 | 7.0 | 0.00 | 0.00 | 0.00 | 50 | 1022.3 |
| 20260902151000 | 85 | 50 | 4.0 | 7.0 | 0.00 | 0.00 | 0.00 | 49 | 1022.3 |
| 20260902150826 | 85 | 42 | 3.0 | 7.0 | 0.00 | 0.00 | 0.00 | 50 | 1022.3 |
| 20260902150802 | 85 | 34 | 2.0 | 7.0 | 0.00 | 0.00 | 0.00 | 50 | 1022.3 |
| 20260902150628 | 85 | 346 | 3.0 | 7.0 | 0.00 | 0.00 | 0.00 | 49 | 1022.3 |
| 20260902150205 | 85 | 5 | 3.0 | 7.0 | 0.00 | 0.00 | 0.00 | 50 | 1022.3 |
| 20260902150024 | 85 | 352 | 2.0 | 7.0 | 0.00 | 0.00 | 0.00 | 50 | 1022.3 |
| 20260902145726 | 85 | 352 | 3.0 | 7.0 | 0.00 | 0.00 | 0.00 | 50 | 1022.3 |
| 20260902145546 | 84 | 335 | 2.0 | 7.0 | 0.00 | 0.00 | 0.00 | 50 | 1022.3 |
| 20260902145410 | 84 | 310 | 2.0 | 10.0 | 0.00 | 0.00 | 0.00 | 50 | 1022.3 |
| 20260902145339 | 84 | 310 | 2.0 | 10.0 | 0.00 | 0.00 | 0.00 | 50 | 1022.3 |
| 20260902143944 | 85 | 273 | 3.0 | 8.0 | 0.00 | 0.00 | 0.00 | 51 | 1022.4 |
| 20260902143828 | 84 | 300 | 1.0 | 6.0 | 0.00 | 0.00 | 0.00 | 52 | 1022.4 |
| 20260902143705 | 84 | 352 | 2.0 | 6.0 | 0.00 | 0.00 | 0.00 | 52 | 1022.4 |
| 20260902143604 | 84 | 343 | 3.0 | 7.0 | 0.00 | 0.00 | 0.00 | 52 | 1022.4 |
| 20260902143530 | 84 | 343 | 3.0 | 7.0 | 0.00 | 0.00 | 0.00 | 52 | 1022.4 |
| 20260902143352 | 83 | 259 | 2.0 | 7.0 | 0.00 | 0.00 | 0.00 | 53 | 1022.4 |
| 20260902143208 | 83 | 348 | 2.0 | 7.0 | 0.00 | 0.00 | 0.00 | 53 | 1022.4 |
| 20260902143131 | 83 | 348 | 2.0 | 7.0 | 0.00 | 0.00 | 0.00 | 53 | 1022.4 |
| 20260902143026 | 83 | 318 | 4.0 | 7.0 | 0.00 | 0.00 | 0.00 | 52 | 1022.3 |
| 20260902142851 | 83 | 261 | 3.0 | 7.0 | 0.00 | 0.00 | 0.00 | 53 | 1022.4 |
| 20260902142728 | 83 | 227 | 4.0 | 7.0 | 0.00 | 0.00 | 0.00 | 52 | 1022.4 |
| 20260902142321 | 83 | 262 | 5.0 | 8.0 | 0.00 | 0.00 | 0.00 | 51 | 1022.5 |
| 20260902142136 | 83 | 260 | 4.0 | 8.0 | 0.00 | 0.00 | 0.00 | 51 | 1022.5 |
| 20260902142105 | 83 | 286 | 4.0 | 8.0 | 0.00 | 0.00 | 0.00 | 51 | 1022.5 |
| 20260902141956 | 83 | 275 | 3.0 | 8.0 | 0.00 | 0.00 | 0.00 | 50 | 1022.5 |
| 20260902141820 | 84 | 291 | 4.0 | 8.0 | 0.00 | 0.00 | 0.00 | 51 | 1022.6 |
| 20260902141653 | 84 | 261 | 5.0 | 8.0 | 0.00 | 0.00 | 0.00 | 50 | 1022.4 |
| 20260902141634 | 84 | 278 | 5.0 | 8.0 | 0.00 | 0.00 | 0.00 | 50 | 1022.6 |
| 20260902141453 | 84 | 275 | 4.0 | 8.0 | 0.00 | 0.00 | 0.00 | 52 | 1022.5 |
| 20260902141034 | 83 | 329 | 1.0 | 6.0 | 0.00 | 0.00 | 0.00 | 53 | 1022.4 |
| 20260902140937 | 83 | 299 | 2.0 | 6.0 | 0.00 | 0.00 | 0.00 | 52 | 1022.6 |
| 20260902140811 | 83 | 288 | 3.0 | 7.0 | 0.00 | 0.00 | 0.00 | 51 | 1022.5 |
| 20260902140638 | 83 | 347 | 2.0 | 7.0 | 0.00 | 0.00 | 0.00 | 52 | 1022.7 |
| 20260902140628 | 83 | 338 | 2.0 | 7.0 | 0.00 | 0.00 | 0.00 | 52 | 1022.7 |
| 20260902140112 | 83 | 344 | 3.0 | 7.0 | 0.00 | 0.00 | 0.00 | 51 | 1022.6 |
| 20260902140019 | 83 | 294 | 4.0 | 7.0 | 0.00 | 0.00 | 0.00 | 51 | 1022.6 |
| 20260902135921 | 83 | 234 | 3.0 | 7.0 | 0.00 | 0.00 | 0.00 | 51 | 1022.6 |
| 20260902135750 | 83 | 322 | 3.0 | 6.0 | 0.00 | 0.00 | 0.00 | 51 | 1022.6 |
| 20260902135603 | 83 | 299 | 3.0 | 6.0 | 0.00 | 0.00 | 0.00 | 51 | 1022.6 |
| 20260902135428 | 83 | 293 | 3.0 | 11.0 | 0.00 | 0.00 | 0.00 | 51 | 1022.7 |
| 20260902135001 | 83 | 11 | 2.0 | 11.0 | 0.00 | 0.00 | 0.00 | 52 | 1022.8 |
| 20260902134916 | 83 | 11 | 2.0 | 11.0 | 0.00 | 0.00 | 0.00 | 52 | 1022.7 |
| 20260902134742 | 82 | 284 | 4.0 | 11.0 | 0.00 | 0.00 | 0.00 | 52 | 1022.8 |
| 20260902134555 | 82 | 314 | 5.0 | 11.0 | 0.00 | 0.00 | 0.00 | 51 | 1022.7 |
| 20260902134413 | 83 | 286 | 3.0 | 7.0 | 0.00 | 0.00 | 0.00 | 52 | 1022.7 |
| 20260902134236 | 82 | 302 | 4.0 | 7.0 | 0.00 | 0.00 | 0.00 | 53 | 1022.8 |
| 20260902134145 | 82 | 277 | 4.0 | 8.0 | 0.00 | 0.00 | 0.00 | 53 | 1022.9 |
| 20260902134050 | 82 | 281 | 3.0 | 8.0 | 0.00 | 0.00 | 0.00 | 52 | 1022.8 |
| 20260902133910 | 82 | 281 | 2.0 | 8.0 | 0.00 | 0.00 | 0.00 | 52 | 1022.7 |
| 20260902133727 | 82 | 242 | 2.0 | 8.0 | 0.00 | 0.00 | 0.00 | 52 | 1022.8 |
| 20260902133339 | 82 | 298 | 3.0 | 8.0 | 0.00 | 0.00 | 0.00 | 52 | 1022.9 |
| 20260902132910 | 82 | 259 | 3.0 | 8.0 | 0.00 | 0.00 | 0.00 | 51 | 1022.9 |
| 20260902132810 | 82 | 297 | 3.0 | 6.0 | 0.00 | 0.00 | 0.00 | 52 | 1022.9 |
| 20260902132637 | 82 | 307 | 3.0 | 6.0 | 0.00 | 0.00 | 0.00 | 51 | 1022.8 |
| 20260902132242 | 83 | 327 | 2.0 | 6.0 | 0.00 | 0.00 | 0.00 | 52 | 1022.8 |
| 20260902132107 | 82 | 9 | 4.0 | 6.0 | 0.00 | 0.00 | 0.00 | 52 | 1022.8 |
| 20260902131913 | 82 | 309 | 4.0 | 6.0 | 0.00 | 0.00 | 0.00 | 52 | 1022.9 |
| 20260902131517 | 82 | 283 | 3.0 | 6.0 | 0.00 | 0.00 | 0.00 | 53 | 1022.9 |
| 20260902130952 | 82 | 296 | 2.0 | 5.0 | 0.00 | 0.00 | 0.00 | 53 | 1022.8 |
| 20260902130924 | 82 | 319 | 2.0 | 5.0 | 0.00 | 0.00 | 0.00 | 53 | 1022.9 |
| 20260902130404 | 81 | 54 | 3.0 | 6.0 | 0.00 | 0.00 | 0.00 | 52 | 1022.9 |
| 20260902130331 | 81 | 143 | 3.0 | 6.0 | 0.00 | 0.00 | 0.00 | 52 | 1023.0 |
| 20260902130225 | 81 | 146 | 2.0 | 6.0 | 0.00 | 0.00 | 0.00 | 52 | 1023.0 |
| 20260902130038 | 81 | 120 | 1.0 | 6.0 | 0.00 | 0.00 | 0.00 | 53 | 1023.0 |
| 20260902125921 | 81 | 289 | 2.0 | 6.0 | 0.00 | 0.00 | 0.00 | 53 | 1023.0 |
| 20260902125850 | 81 | 271 | 2.0 | 6.0 | 0.00 | 0.00 | 0.00 | 53 | 1023.1 |
| 20260902125707 | 81 | 310 | 3.0 | 6.0 | 0.00 | 0.00 | 0.00 | 53 | 1023.1 |
| 20260902125244 | 81 | 255 | 2.0 | 5.0 | 0.00 | 0.00 | 0.00 | 53 | 1023.2 |
| 20260902125128 | 81 | 275 | 2.0 | 5.0 | 0.00 | 0.00 | 0.00 | 53 | 1023.1 |
| 20260902124941 | 81 | 336 | 3.0 | 5.0 | 0.00 | 0.00 | 0.00 | 52 | 1023.1 |
| 20260902124833 | 81 | 352 | 2.0 | 7.0 | 0.00 | 0.00 | 0.00 | 52 | 1023.2 |
| 20260902124757 | 81 | 19 | 2.0 | 7.0 | 0.00 | 0.00 | 0.00 | 52 | 1023.2 |
| 20260902124619 | 81 | 53 | 3.0 | 7.0 | 0.00 | 0.00 | 0.00 | 52 | 1023.1 |
| 20260902124429 | 81 | 85 | 2.0 | 7.0 | 0.00 | 0.00 | 0.00 | 53 | 1023.1 |
| 20260902124400 | 81 | 60 | 3.0 | 7.0 | 0.00 | 0.00 | 0.00 | 53 | 1023.1 |
| 20260902124239 | 81 | 184 | 4.0 | 7.0 | 0.00 | 0.00 | 0.00 | 51 | 1023.0 |
| 20260902124049 | 81 | 92 | 3.0 | 7.0 | 0.00 | 0.00 | 0.00 | 52 | 1023.1 |
| 20260902123930 | 81 | 69 | 1.0 | 5.0 | 0.00 | 0.00 | 0.00 | 53 | 1023.1 |
| 20260902123902 | 81 | 146 | 1.0 | 4.0 | 0.00 | 0.00 | 0.00 | 52 | 1023.0 |
| 20260902122747 | 80 | 292 | 1.0 | 5.0 | 0.00 | 0.00 | 0.00 | 54 | 1023.0 |
| 20260902122600 | 80 | 292 | 2.0 | 5.0 | 0.00 | 0.00 | 0.00 | 53 | 1023.1 |
| 20260902122448 | 80 | 272 | 2.0 | 8.0 | 0.00 | 0.00 | 0.00 | 53 | 1023.2 |
| 20260902122424 | 80 | 272 | 2.0 | 8.0 | 0.00 | 0.00 | 0.00 | 53 | 1023.1 |
| 20260902122256 | 80 | 204 | 3.0 | 8.0 | 0.00 | 0.00 | 0.00 | 54 | 1023.1 |
| 20260902122106 | 80 | 157 | 1.0 | 8.0 | 0.00 | 0.00 | 0.00 | 54 | 1023.1 |
| 20260902122036 | 80 | 113 | 1.0 | 8.0 | 0.00 | 0.00 | 0.00 | 53 | 1023.1 |
| 20260902121934 | 80 | 123 | 2.0 | 8.0 | 0.00 | 0.00 | 0.00 | 54 | 1023.2 |
| 20260902121750 | 80 | 117 | 3.0 | 8.0 | 0.00 | 0.00 | 0.00 | 54 | 1023.2 |
| 20260902121633 | 80 | 46 | 3.0 | 6.0 | 0.00 | 0.00 | 0.00 | 53 | 1023.2 |
| 20260902121604 | 80 | 53 | 3.0 | 6.0 | 0.00 | 0.00 | 0.00 | 53 | 1023.2 |
| 20260902121420 | 80 | 100 | 1.0 | 10.0 | 0.00 | 0.00 | 0.00 | 54 | 1023.2 |
| 20260902121240 | 80 | 153 | 3.0 | 10.0 | 0.00 | 0.00 | 0.00 | 54 | 1023.2 |
| 20260902120457 | 79 | 178 | 2.0 | 10.0 | 0.00 | 0.00 | 0.00 | 55 | 1023.3 |
| 20260902120340 | 79 | 196 | 6.0 | 10.0 | 0.00 | 0.00 | 0.00 | 54 | 1023.3 |
| 20260902120313 | 79 | 194 | 6.0 | 10.0 | 0.00 | 0.00 | 0.00 | 54 | 1023.4 |
| 20260902120132 | 79 | 111 | 6.0 | 9.0 | 0.00 | 0.00 | 0.00 | 53 | 1023.4 |
| 20260902115939 | 80 | 174 | 3.0 | 9.0 | 0.00 | 0.00 | 0.00 | 53 | 1023.3 |
| 20260902115153 | 80 | 96 | 6.0 | 9.0 | 0.00 | 0.00 | 0.00 | 53 | 1023.4 |
| 20260902115039 | 80 | 76 | 4.0 | 9.0 | 0.00 | 0.00 | 0.00 | 54 | 1023.5 |
| 20260902115005 | 80 | 74 | 4.0 | 9.0 | 0.00 | 0.00 | 0.00 | 54 | 1023.4 |
| 20260902114831 | 79 | 5 | 1.0 | 4.0 | 0.00 | 0.00 | 0.00 | 55 | 1023.4 |
| 20260902114433 | 79 | 5 | 3.0 | 4.0 | 0.00 | 0.00 | 0.00 | 54 | 1023.4 |
| 20260902114319 | 79 | 350 | 2.0 | 4.0 | 0.00 | 0.00 | 0.00 | 56 | 1023.4 |
| 20260902114129 | 79 | 327 | 0.0 | 8.0 | 0.00 | 0.00 | 0.00 | 55 | 1023.3 |
| 20260902114028 | 79 | 287 | 1.0 | 8.0 | 0.00 | 0.00 | 0.00 | 55 | 1023.3 |
| 20260902113611 | 78 | 5 | 2.0 | 8.0 | 0.00 | 0.00 | 0.00 | 56 | 1023.4 |
| 20260902113418 | 78 | 19 | 2.0 | 9.0 | 0.00 | 0.00 | 0.00 | 56 | 1023.4 |
| 20260902113249 | 78 | 59 | 4.0 | 9.0 | 0.00 | 0.00 | 0.00 | 56 | 1023.4 |
| 20260902113051 | 78 | 49 | 4.0 | 9.0 | 0.00 | 0.00 | 0.00 | 56 | 1023.4 |
| 20260902112959 | 78 | 50 | 4.0 | 9.0 | 0.00 | 0.00 | 0.00 | 56 | 1023.4 |
| 20260902112908 | 78 | 60 | 3.0 | 9.0 | 0.00 | 0.00 | 0.00 | 56 | 1023.4 |
| 20260902112714 | 78 | 76 | 6.0 | 9.0 | 0.00 | 0.00 | 0.00 | 56 | 1023.4 |
| 20260902112532 | 78 | 49 | 5.0 | 8.0 | 0.00 | 0.00 | 0.00 | 56 | 1023.4 |
| 20260902112136 | 78 | 57 | 1.0 | 8.0 | 0.00 | 0.00 | 0.00 | 57 | 1023.5 |
| 20260902111949 | 78 | 299 | 3.0 | 8.0 | 0.00 | 0.00 | 0.00 | 56 | 1023.5 |
| 20260902111605 | 78 | 286 | 3.0 | 8.0 | 0.00 | 0.00 | 0.00 | 56 | 1023.5 |
| 20260902111415 | 78 | 251 | 1.0 | 8.0 | 0.00 | 0.00 | 0.00 | 57 | 1023.5 |
| 20260902111234 | 78 | 140 | 2.0 | 8.0 | 0.00 | 0.00 | 0.00 | 57 | 1023.6 |
| 20260902111053 | 77 | 92 | 3.0 | 8.0 | 0.00 | 0.00 | 0.00 | 57 | 1023.6 |
| 20260902110854 | 77 | 348 | 4.0 | 9.0 | 0.00 | 0.00 | 0.00 | 58 | 1023.6 |
| 20260902110456 | 77 | 27 | 2.0 | 9.0 | 0.00 | 0.00 | 0.00 | 58 | 1023.6 |
| 20260902110306 | 77 | 327 | 4.0 | 9.0 | 0.00 | 0.00 | 0.00 | 58 | 1023.7 |
| 20260902110123 | 77 | 350 | 5.0 | 9.0 | 0.00 | 0.00 | 0.00 | 58 | 1023.7 |
| 20260902105951 | 77 | 352 | 5.0 | 10.0 | 0.00 | 0.00 | 0.00 | 59 | 1023.8 |
| 20260902105802 | 77 | 273 | 2.0 | 10.0 | 0.00 | 0.00 | 0.00 | 58 | 1023.7 |
| 20260902105711 | 77 | 260 | 3.0 | 10.0 | 0.00 | 0.00 | 0.00 | 58 | 1023.6 |
| 20260902105621 | 77 | 332 | 3.0 | 10.0 | 0.00 | 0.00 | 0.00 | 60 | 1023.8 |
| 20260902105437 | 77 | 304 | 5.0 | 10.0 | 0.00 | 0.00 | 0.00 | 60 | 1023.6 |
| 20260902105306 | 77 | 10 | 4.0 | 10.0 | 0.00 | 0.00 | 0.00 | 59 | 1023.7 |
| 20260902104523 | 77 | 281 | 3.0 | 10.0 | 0.00 | 0.00 | 0.00 | 59 | 1023.7 |
| 20260902103719 | 77 | 350 | 2.0 | 10.0 | 0.00 | 0.00 | 0.00 | 61 | 1023.8 |
| 20260902103539 | 76 | 260 | 2.0 | 10.0 | 0.00 | 0.00 | 0.00 | 61 | 1023.8 |
| 20260902103533 | 76 | 258 | 3.0 | 10.0 | 0.00 | 0.00 | 0.00 | 61 | 1023.8 |
| 20260902103406 | 76 | 352 | 4.0 | 10.0 | 0.00 | 0.00 | 0.00 | 60 | 1023.8 |
| 20260902103208 | 76 | 39 | 2.0 | 7.0 | 0.00 | 0.00 | 0.00 | 60 | 1023.7 |
| 20260902103129 | 76 | 74 | 4.0 | 8.0 | 0.00 | 0.00 | 0.00 | 61 | 1023.8 |
| 20260902103024 | 76 | 76 | 4.0 | 8.0 | 0.00 | 0.00 | 0.00 | 59 | 1023.7 |
| 20260902102830 | 76 | 54 | 2.0 | 8.0 | 0.00 | 0.00 | 0.00 | 62 | 1023.7 |
| 20260902102704 | 76 | 55 | 2.0 | 8.0 | 0.00 | 0.00 | 0.00 | 61 | 1023.8 |
| 20260902102307 | 76 | 44 | 4.0 | 9.0 | 0.00 | 0.00 | 0.00 | 62 | 1023.8 |
| 20260902102103 | 76 | 43 | 3.0 | 9.0 | 0.00 | 0.00 | 0.00 | 62 | 1023.8 |
| 20260902102015 | 75 | 61 | 2.0 | 9.0 | 0.00 | 0.00 | 0.00 | 62 | 1023.8 |
| 20260902101911 | 75 | 45 | 3.0 | 9.0 | 0.00 | 0.00 | 0.00 | 64 | 1023.9 |
| 20260902101719 | 75 | 63 | 5.0 | 9.0 | 0.00 | 0.00 | 0.00 | 63 | 1023.9 |
| 20260902101554 | 75 | 52 | 4.0 | 9.0 | 0.00 | 0.00 | 0.00 | 62 | 1023.8 |
| 20260902101526 | 75 | 62 | 4.0 | 9.0 | 0.00 | 0.00 | 0.00 | 62 | 1023.8 |
| 20260902101348 | 75 | 44 | 5.0 | 8.0 | 0.00 | 0.00 | 0.00 | 63 | 1023.8 |
| 20260902101154 | 75 | 71 | 4.0 | 8.0 | 0.00 | 0.00 | 0.00 | 64 | 1023.8 |
| 20260902101125 | 75 | 53 | 4.0 | 8.0 | 0.00 | 0.00 | 0.00 | 64 | 1023.8 |
| 20260902101005 | 75 | 77 | 5.0 | 8.0 | 0.00 | 0.00 | 0.00 | 64 | 1023.8 |
| 20260902100808 | 75 | 66 | 5.0 | 8.0 | 0.00 | 0.00 | 0.00 | 63 | 1023.8 |
| 20260902100651 | 75 | 80 | 2.0 | 7.0 | 0.00 | 0.00 | 0.00 | 64 | 1023.8 |
| 20260902100618 | 75 | 41 | 2.0 | 6.0 | 0.00 | 0.00 | 0.00 | 65 | 1023.8 |
| 20260902100452 | 75 | 56 | 2.0 | 5.0 | 0.00 | 0.00 | 0.00 | 65 | 1023.8 |
| 20260902100257 | 75 | 48 | 2.0 | 5.0 | 0.00 | 0.00 | 0.00 | 66 | 1023.7 |
| 20260902100231 | 75 | 85 | 2.0 | 5.0 | 0.00 | 0.00 | 0.00 | 65 | 1023.8 |
| 20260902100110 | 74 | 323 | 2.0 | 4.0 | 0.00 | 0.00 | 0.00 | 65 | 1023.6 |
| 20260902095610 | 74 | 308 | 2.0 | 4.0 | 0.00 | 0.00 | 0.00 | 67 | 1023.6 |
| 20260902095541 | 74 | 307 | 2.0 | 4.0 | 0.00 | 0.00 | 0.00 | 67 | 1023.8 |
| 20260902095403 | 74 | 281 | 1.0 | 4.0 | 0.00 | 0.00 | 0.00 | 67 | 1023.8 |
| 20260902095223 | 74 | 352 | 0.0 | 4.0 | 0.00 | 0.00 | 0.00 | 67 | 1023.8 |
| 20260902095205 | 74 | 352 | 1.0 | 4.0 | 0.00 | 0.00 | 0.00 | 67 | 1023.8 |
| 20260902095108 | 74 | 352 | 2.0 | 4.0 | 0.00 | 0.00 | 0.00 | 67 | 1023.8 |
| 20260902094937 | 74 | 352 | 2.0 | 5.0 | 0.00 | 0.00 | 0.00 | 68 | 1023.9 |
| 20260902094829 | 74 | 352 | 1.0 | 5.0 | 0.00 | 0.00 | 0.00 | 68 | 1023.8 |
| 20260902094756 | 74 | 42 | 1.0 | 5.0 | 0.00 | 0.00 | 0.00 | 69 | 1023.8 |
| 20260902094613 | 74 | 83 | 2.0 | 6.0 | 0.00 | 0.00 | 0.00 | 69 | 1023.8 |
| 20260902094137 | 73 | 91 | 2.0 | 6.0 | 0.00 | 0.00 | 0.00 | 69 | 1023.7 |
| 20260902094027 | 73 | 85 | 2.0 | 6.0 | 0.00 | 0.00 | 0.00 | 68 | 1023.7 |
| 20260902093520 | 73 | 83 | 1.0 | 6.0 | 0.00 | 0.00 | 0.00 | 70 | 1023.7 |
| 20260902093447 | 73 | 55 | 3.0 | 6.0 | 0.00 | 0.00 | 0.00 | 70 | 1023.8 |
| 20260902093325 | 73 | 94 | 2.0 | 6.0 | 0.00 | 0.00 | 0.00 | 70 | 1023.8 |
| 20260902093127 | 73 | 22 | 2.0 | 6.0 | 0.00 | 0.00 | 0.00 | 71 | 1023.8 |
| 20260902093054 | 73 | 22 | 1.0 | 6.0 | 0.00 | 0.00 | 0.00 | 70 | 1023.7 |
| 20260902092938 | 72 | 74 | 2.0 | 6.0 | 0.00 | 0.00 | 0.00 | 70 | 1023.7 |
| 20260902092740 | 72 | 79 | 0.0 | 6.0 | 0.00 | 0.00 | 0.00 | 71 | 1023.8 |
| 20260902092648 | 72 | 98 | 2.0 | 6.0 | 0.00 | 0.00 | 0.00 | 70 | 1023.8 |
| 20260902092626 | 72 | 98 | 2.0 | 6.0 | 0.00 | 0.00 | 0.00 | 70 | 1023.8 |
| 20260902092447 | 72 | 88 | 3.0 | 6.0 | 0.00 | 0.00 | 0.00 | 70 | 1023.7 |
| 20260902092256 | 72 | 87 | 3.0 | 6.0 | 0.00 | 0.00 | 0.00 | 71 | 1023.8 |